| time (UTC) | temp F | wind direction | speed knots | gust knots | rain 1hr in | rain 24hr in | rain mn in | humidity % | barometer mb |
| 20260504233905 | 81 | 38 | 7.8 | 15.6 | 0.00 | 0.00 | 0.00 | 58 | 1009.1 |
| 20260504233805 | 81 | 37 | 7.8 | 15.6 | 0.00 | 0.00 | 0.00 | 58 | 1009.2 |
| 20260504233705 | 81 | 34 | 8.7 | 15.6 | 0.00 | 0.00 | 0.00 | 58 | 1009.1 |
| 20260504233605 | 81 | 34 | 8.7 | 15.6 | 0.00 | 0.00 | 0.00 | 58 | 1009.1 |
| 20260504233505 | 81 | 35 | 8.7 | 15.6 | 0.00 | 0.00 | 0.00 | 58 | 1009.1 |
| 20260504233405 | 81 | 34 | 8.7 | 15.6 | 0.00 | 0.00 | 0.00 | 58 | 1009.2 |
| 20260504233305 | 81 | 33 | 8.7 | 15.6 | 0.00 | 0.00 | 0.00 | 58 | 1009.2 |
| 20260504233226 | 81 | 32 | 8.7 | 15.6 | 0.00 | 0.00 | 0.00 | 57 | 1009.2 |
| 20260504233105 | 81 | 32 | 7.8 | 15.6 | 0.00 | 0.00 | 0.00 | 58 | 1009.2 |
| 20260504233026 | 81 | 32 | 7.8 | 15.6 | 0.00 | 0.00 | 0.00 | 58 | 1009.2 |
| 20260504232905 | 81 | 32 | 7.8 | 15.6 | 0.00 | 0.00 | 0.00 | 57 | 1009.2 |
| 20260504232805 | 81 | 34 | 7.8 | 15.6 | 0.00 | 0.00 | 0.00 | 57 | 1009.2 |
| 20260504232705 | 81 | 36 | 7.8 | 15.6 | 0.00 | 0.00 | 0.00 | 57 | 1009.2 |
| 20260504232605 | 81 | 35 | 7.8 | 15.6 | 0.00 | 0.00 | 0.00 | 57 | 1009.3 |
| 20260504232505 | 81 | 36 | 7.0 | 15.6 | 0.00 | 0.00 | 0.00 | 57 | 1009.3 |
| 20260504232426 | 81 | 38 | 7.0 | 15.6 | 0.00 | 0.00 | 0.00 | 57 | 1009.3 |
| 20260504232305 | 81 | 38 | 7.0 | 13.0 | 0.00 | 0.00 | 0.00 | 57 | 1009.3 |
| 20260504232226 | 82 | 39 | 7.0 | 14.8 | 0.00 | 0.00 | 0.00 | 57 | 1009.3 |
| 20260504232105 | 82 | 39 | 7.0 | 14.8 | 0.00 | 0.00 | 0.00 | 57 | 1009.3 |
| 20260504232005 | 82 | 37 | 7.8 | 14.8 | 0.00 | 0.00 | 0.00 | 58 | 1009.3 |
| 20260504231926 | 82 | 36 | 7.8 | 14.8 | 0.00 | 0.00 | 0.00 | 58 | 1009.4 |
| 20260504231826 | 82 | 35 | 7.0 | 14.8 | 0.00 | 0.00 | 0.00 | 58 | 1009.3 |
| 20260504231705 | 82 | 32 | 7.0 | 14.8 | 0.00 | 0.00 | 0.00 | 58 | 1009.3 |
| 20260504231605 | 82 | 30 | 7.8 | 14.8 | 0.00 | 0.00 | 0.00 | 57 | 1009.3 |
| 20260504231504 | 82 | 28 | 7.0 | 14.8 | 0.00 | 0.00 | 0.00 | 57 | 1009.2 |
| 20260504231405 | 82 | 27 | 7.8 | 14.8 | 0.00 | 0.00 | 0.00 | 57 | 1009.2 |
| 20260504231305 | 82 | 29 | 7.8 | 14.8 | 0.00 | 0.00 | 0.00 | 57 | 1009.2 |
| 20260504231226 | 82 | 32 | 7.8 | 13.9 | 0.00 | 0.00 | 0.00 | 57 | 1009.3 |
| 20260504231105 | 82 | 32 | 8.7 | 15.6 | 0.00 | 0.00 | 0.00 | 57 | 1009.2 |
| 20260504231004 | 82 | 31 | 8.7 | 15.6 | 0.00 | 0.00 | 0.00 | 57 | 1009.2 |
| 20260504230905 | 82 | 33 | 8.7 | 16.5 | 0.00 | 0.00 | 0.00 | 57 | 1009.3 |
| 20260504230805 | 82 | 33 | 8.7 | 16.5 | 0.00 | 0.00 | 0.00 | 57 | 1009.3 |
| 20260504230705 | 82 | 33 | 8.7 | 16.5 | 0.00 | 0.00 | 0.00 | 57 | 1009.3 |
| 20260504230605 | 82 | 35 | 7.8 | 16.5 | 0.00 | 0.00 | 0.00 | 57 | 1009.3 |
| 20260504230505 | 82 | 35 | 7.8 | 16.5 | 0.00 | 0.00 | 0.00 | 57 | 1009.3 |
| 20260504230405 | 82 | 36 | 7.8 | 16.5 | 0.00 | 0.00 | 0.00 | 57 | 1009.4 |
| 20260504230305 | 82 | 36 | 7.0 | 16.5 | 0.00 | 0.00 | 0.00 | 57 | 1009.3 |
| 20260504230226 | 82 | 33 | 6.1 | 16.5 | 0.00 | 0.00 | 0.00 | 57 | 1009.4 |
| 20260504230105 | 82 | 33 | 6.1 | 16.5 | 0.00 | 0.00 | 0.00 | 57 | 1009.5 |
| 20260504230005 | 82 | 33 | 6.1 | 16.5 | 0.00 | 0.00 | 0.00 | 57 | 1009.5 |
| 20260504225905 | 82 | 31 | 7.0 | 16.5 | 0.00 | 0.00 | 0.00 | 57 | 1009.5 |
| 20260504225805 | 82 | 29 | 7.0 | 16.5 | 0.00 | 0.00 | 0.00 | 58 | 1009.4 |
| 20260504225705 | 82 | 29 | 7.0 | 16.5 | 0.00 | 0.00 | 0.00 | 58 | 1009.5 |
| 20260504225604 | 82 | 26 | 7.0 | 16.5 | 0.00 | 0.00 | 0.00 | 58 | 1009.5 |
| 20260504225504 | 82 | 26 | 7.0 | 16.5 | 0.00 | 0.00 | 0.00 | 57 | 1009.5 |
| 20260504225405 | 82 | 25 | 7.0 | 16.5 | 0.00 | 0.00 | 0.00 | 57 | 1009.5 |
| 20260504225305 | 82 | 23 | 7.0 | 16.5 | 0.00 | 0.00 | 0.00 | 57 | 1009.6 |
| 20260504225226 | 82 | 23 | 7.0 | 16.5 | 0.00 | 0.00 | 0.00 | 57 | 1009.5 |
| 20260504225105 | 82 | 23 | 7.0 | 16.5 | 0.00 | 0.00 | 0.00 | 57 | 1009.6 |
| 20260504225004 | 82 | 24 | 7.0 | 16.5 | 0.00 | 0.00 | 0.00 | 57 | 1009.6 |
| 20260504224905 | 82 | 23 | 6.1 | 14.8 | 0.00 | 0.00 | 0.00 | 57 | 1009.6 |
| 20260504224805 | 82 | 24 | 6.1 | 14.8 | 0.00 | 0.00 | 0.00 | 56 | 1009.6 |
| 20260504224726 | 82 | 26 | 6.1 | 12.2 | 0.00 | 0.00 | 0.00 | 57 | 1009.7 |
| 20260504224605 | 82 | 29 | 6.1 | 12.2 | 0.00 | 0.00 | 0.00 | 57 | 1009.6 |
| 20260504224526 | 82 | 30 | 6.1 | 12.2 | 0.00 | 0.00 | 0.00 | 56 | 1009.7 |
| 20260504224405 | 82 | 29 | 7.0 | 12.2 | 0.00 | 0.00 | 0.00 | 56 | 1009.6 |
| 20260504224305 | 83 | 28 | 7.0 | 12.2 | 0.00 | 0.00 | 0.00 | 56 | 1009.6 |
| 20260504224205 | 83 | 25 | 7.0 | 12.2 | 0.00 | 0.00 | 0.00 | 56 | 1009.6 |
| 20260504224105 | 83 | 24 | 7.0 | 13.0 | 0.00 | 0.00 | 0.00 | 56 | 1009.6 |
| 20260504224005 | 83 | 24 | 7.0 | 13.0 | 0.00 | 0.00 | 0.00 | 56 | 1009.6 |
| 20260504223905 | 83 | 24 | 7.0 | 13.0 | 0.00 | 0.00 | 0.00 | 56 | 1009.7 |
| 20260504223805 | 82 | 25 | 7.0 | 13.0 | 0.00 | 0.00 | 0.00 | 56 | 1009.6 |
| 20260504223704 | 82 | 27 | 7.0 | 13.0 | 0.00 | 0.00 | 0.00 | 57 | 1009.6 |
| 20260504223605 | 82 | 26 | 7.8 | 13.0 | 0.00 | 0.00 | 0.00 | 57 | 1009.5 |
| 20260504223505 | 82 | 26 | 7.8 | 14.8 | 0.00 | 0.00 | 0.00 | 56 | 1009.5 |
| 20260504223405 | 82 | 26 | 7.8 | 14.8 | 0.00 | 0.00 | 0.00 | 57 | 1009.5 |
| 20260504223305 | 82 | 25 | 7.8 | 14.8 | 0.00 | 0.00 | 0.00 | 57 | 1009.5 |
| 20260504223205 | 82 | 27 | 7.8 | 14.8 | 0.00 | 0.00 | 0.00 | 57 | 1009.6 |
| 20260504223105 | 82 | 28 | 7.8 | 14.8 | 0.00 | 0.00 | 0.00 | 57 | 1009.5 |
| 20260504223005 | 82 | 27 | 7.8 | 14.8 | 0.00 | 0.00 | 0.00 | 57 | 1009.6 |
| 20260504222905 | 82 | 27 | 8.7 | 14.8 | 0.00 | 0.00 | 0.00 | 57 | 1009.6 |
| 20260504222805 | 82 | 27 | 7.8 | 14.8 | 0.00 | 0.00 | 0.00 | 57 | 1009.6 |
| 20260504222705 | 82 | 25 | 7.8 | 14.8 | 0.00 | 0.00 | 0.00 | 57 | 1009.7 |
| 20260504222605 | 82 | 25 | 7.8 | 15.6 | 0.00 | 0.00 | 0.00 | 57 | 1009.7 |
| 20260504222504 | 82 | 26 | 7.8 | 15.6 | 0.00 | 0.00 | 0.00 | 57 | 1009.7 |
| 20260504222405 | 82 | 26 | 7.8 | 15.6 | 0.00 | 0.00 | 0.00 | 56 | 1009.7 |
| 20260504222305 | 82 | 29 | 7.8 | 15.6 | 0.00 | 0.00 | 0.00 | 56 | 1009.7 |
| 20260504222226 | 83 | 30 | 7.8 | 15.6 | 0.00 | 0.00 | 0.00 | 56 | 1009.7 |
| 20260504222105 | 83 | 25 | 7.8 | 15.6 | 0.00 | 0.00 | 0.00 | 56 | 1009.7 |
| 20260504222005 | 83 | 24 | 7.8 | 15.6 | 0.00 | 0.00 | 0.00 | 56 | 1009.8 |
| 20260504221904 | 83 | 23 | 7.8 | 15.6 | 0.00 | 0.00 | 0.00 | 56 | 1009.8 |
| 20260504221805 | 83 | 23 | 7.8 | 15.6 | 0.00 | 0.00 | 0.00 | 56 | 1009.7 |
| 20260504221705 | 83 | 26 | 7.8 | 15.6 | 0.00 | 0.00 | 0.00 | 56 | 1009.7 |
| 20260504221605 | 83 | 25 | 7.0 | 14.8 | 0.00 | 0.00 | 0.00 | 56 | 1009.6 |
| 20260504221505 | 83 | 22 | 7.0 | 14.8 | 0.00 | 0.00 | 0.00 | 56 | 1009.7 |
| 20260504221405 | 83 | 20 | 7.8 | 18.2 | 0.00 | 0.00 | 0.00 | 56 | 1009.7 |
| 20260504221305 | 83 | 21 | 7.8 | 18.2 | 0.00 | 0.00 | 0.00 | 56 | 1009.7 |
| 20260504221205 | 83 | 21 | 7.8 | 18.2 | 0.00 | 0.00 | 0.00 | 55 | 1009.8 |
| 20260504221105 | 83 | 26 | 7.8 | 18.2 | 0.00 | 0.00 | 0.00 | 56 | 1009.8 |
| 20260504221004 | 83 | 27 | 7.8 | 18.2 | 0.00 | 0.00 | 0.00 | 56 | 1009.7 |
| 20260504220905 | 83 | 27 | 8.7 | 18.2 | 0.00 | 0.00 | 0.00 | 56 | 1009.7 |
| 20260504220805 | 82 | 27 | 8.7 | 18.2 | 0.00 | 0.00 | 0.00 | 56 | 1009.7 |
| 20260504220705 | 82 | 28 | 8.7 | 18.2 | 0.00 | 0.00 | 0.00 | 56 | 1009.8 |
| 20260504220605 | 82 | 26 | 8.7 | 18.2 | 0.00 | 0.00 | 0.00 | 56 | 1009.8 |
| 20260504220505 | 82 | 29 | 8.7 | 18.2 | 0.00 | 0.00 | 0.00 | 56 | 1009.8 |
| 20260504220404 | 82 | 29 | 7.8 | 17.4 | 0.00 | 0.00 | 0.00 | 56 | 1009.9 |
| 20260504220326 | 83 | 28 | 7.8 | 15.6 | 0.00 | 0.00 | 0.00 | 56 | 1009.8 |
| 20260504220205 | 83 | 27 | 7.0 | 15.6 | 0.00 | 0.00 | 0.00 | 55 | 1009.8 |
| 20260504220105 | 83 | 24 | 7.0 | 15.6 | 0.00 | 0.00 | 0.00 | 55 | 1009.9 |
| 20260504220005 | 83 | 24 | 6.1 | 15.6 | 0.00 | 0.00 | 0.00 | 56 | 1009.9 |
| 20260504215905 | 83 | 27 | 6.1 | 15.6 | 0.00 | 0.00 | 0.00 | 55 | 1009.9 |
| 20260504215805 | 83 | 27 | 6.1 | 15.6 | 0.00 | 0.00 | 0.00 | 55 | 1009.9 |
| 20260504215705 | 83 | 25 | 6.1 | 14.8 | 0.00 | 0.00 | 0.00 | 55 | 1009.8 |
| 20260504215604 | 83 | 27 | 6.1 | 14.8 | 0.00 | 0.00 | 0.00 | 56 | 1009.7 |
| 20260504215505 | 83 | 22 | 6.1 | 14.8 | 0.00 | 0.00 | 0.00 | 56 | 1009.7 |
| 20260504215404 | 83 | 18 | 6.1 | 14.8 | 0.00 | 0.00 | 0.00 | 56 | 1009.7 |
| 20260504215305 | 83 | 17 | 6.1 | 14.8 | 0.00 | 0.00 | 0.00 | 56 | 1009.7 |
| 20260504215226 | 83 | 18 | 7.0 | 14.8 | 0.00 | 0.00 | 0.00 | 56 | 1009.7 |
| 20260504215105 | 83 | 15 | 7.0 | 15.6 | 0.00 | 0.00 | 0.00 | 56 | 1009.7 |
| 20260504215005 | 83 | 12 | 7.0 | 15.6 | 0.00 | 0.00 | 0.00 | 56 | 1009.8 |
| 20260504214905 | 83 | 7 | 7.8 | 15.6 | 0.00 | 0.00 | 0.00 | 55 | 1009.8 |
| 20260504214805 | 83 | 1 | 7.0 | 15.6 | 0.00 | 0.00 | 0.00 | 55 | 1009.7 |
| 20260504214705 | 83 | 2 | 7.0 | 15.6 | 0.00 | 0.00 | 0.00 | 55 | 1009.9 |
| 20260504214604 | 83 | 3 | 7.0 | 15.6 | 0.00 | 0.00 | 0.00 | 56 | 1009.8 |
| 20260504214526 | 83 | 7 | 7.0 | 15.6 | 0.00 | 0.00 | 0.00 | 56 | 1009.7 |
| 20260504214405 | 82 | 18 | 7.0 | 15.6 | 0.00 | 0.00 | 0.00 | 56 | 1009.7 |
| 20260504214326 | 82 | 19 | 7.8 | 15.6 | 0.00 | 0.00 | 0.00 | 55 | 1009.8 |
| 20260504214204 | 82 | 23 | 7.8 | 16.5 | 0.00 | 0.00 | 0.00 | 56 | 1009.8 |
| 20260504214105 | 82 | 27 | 7.0 | 16.5 | 0.00 | 0.00 | 0.00 | 55 | 1009.9 |
| 20260504214004 | 82 | 33 | 7.0 | 16.5 | 0.00 | 0.00 | 0.00 | 56 | 1009.9 |
| 20260504213905 | 82 | 37 | 7.0 | 16.5 | 0.00 | 0.00 | 0.00 | 56 | 1010.0 |
| 20260504213805 | 82 | 42 | 7.0 | 16.5 | 0.00 | 0.00 | 0.00 | 56 | 1009.9 |
| 20260504213705 | 82 | 42 | 7.0 | 16.5 | 0.00 | 0.00 | 0.00 | 56 | 1010.0 |
| 20260504213605 | 82 | 42 | 7.0 | 16.5 | 0.00 | 0.00 | 0.00 | 56 | 1010.1 |
| 20260504213505 | 82 | 43 | 7.0 | 16.5 | 0.00 | 0.00 | 0.00 | 56 | 1010.0 |
| 20260504213426 | 82 | 44 | 6.1 | 16.5 | 0.00 | 0.00 | 0.00 | 56 | 1010.1 |
| 20260504213305 | 83 | 43 | 6.1 | 16.5 | 0.00 | 0.00 | 0.00 | 56 | 1010.1 |
| 20260504213205 | 83 | 43 | 6.1 | 12.2 | 0.00 | 0.00 | 0.00 | 56 | 1010.1 |
| 20260504213105 | 82 | 40 | 6.1 | 12.2 | 0.00 | 0.00 | 0.00 | 56 | 1010.2 |
| 20260504213005 | 82 | 39 | 6.1 | 13.0 | 0.00 | 0.00 | 0.00 | 56 | 1010.2 |
| 20260504212925 | 82 | 40 | 6.1 | 13.0 | 0.00 | 0.00 | 0.00 | 56 | 1010.3 |
| 20260504212804 | 83 | 39 | 6.1 | 13.9 | 0.00 | 0.00 | 0.00 | 56 | 1010.3 |
| 20260504212705 | 83 | 37 | 6.1 | 13.9 | 0.00 | 0.00 | 0.00 | 56 | 1010.3 |
| 20260504212626 | 83 | 38 | 6.1 | 13.9 | 0.00 | 0.00 | 0.00 | 55 | 1010.4 |
| 20260504212504 | 83 | 38 | 7.0 | 13.9 | 0.00 | 0.00 | 0.00 | 56 | 1010.4 |
| 20260504212405 | 83 | 40 | 7.0 | 13.9 | 0.00 | 0.00 | 0.00 | 56 | 1010.4 |
| 20260504212304 | 83 | 41 | 7.0 | 13.9 | 0.00 | 0.00 | 0.00 | 56 | 1010.4 |
| 20260504212226 | 83 | 41 | 7.0 | 13.9 | 0.00 | 0.00 | 0.00 | 55 | 1010.4 |
| 20260504212105 | 83 | 40 | 7.0 | 13.9 | 0.00 | 0.00 | 0.00 | 55 | 1010.3 |
| 20260504212004 | 83 | 39 | 7.0 | 13.9 | 0.00 | 0.00 | 0.00 | 56 | 1010.3 |
| 20260504211905 | 83 | 36 | 7.0 | 13.9 | 0.00 | 0.00 | 0.00 | 56 | 1010.3 |
| 20260504211805 | 82 | 37 | 7.0 | 13.0 | 0.00 | 0.00 | 0.00 | 56 | 1010.3 |
| 20260504211705 | 82 | 38 | 6.1 | 13.0 | 0.00 | 0.00 | 0.00 | 56 | 1010.3 |
| 20260504211605 | 82 | 40 | 6.1 | 13.0 | 0.00 | 0.00 | 0.00 | 55 | 1010.4 |
| 20260504211504 | 82 | 40 | 6.1 | 13.0 | 0.00 | 0.00 | 0.00 | 55 | 1010.4 |
| 20260504211405 | 83 | 38 | 6.1 | 13.0 | 0.00 | 0.00 | 0.00 | 55 | 1010.5 |
| 20260504211305 | 82 | 37 | 6.1 | 13.9 | 0.00 | 0.00 | 0.00 | 55 | 1010.5 |
| 20260504211205 | 82 | 36 | 6.1 | 13.9 | 0.00 | 0.00 | 0.00 | 56 | 1010.5 |
| 20260504211105 | 82 | 37 | 7.0 | 13.9 | 0.00 | 0.00 | 0.00 | 56 | 1010.6 |
| 20260504211005 | 82 | 38 | 7.0 | 13.9 | 0.00 | 0.00 | 0.00 | 56 | 1010.5 |
| 20260504210904 | 82 | 37 | 7.0 | 13.9 | 0.00 | 0.00 | 0.00 | 57 | 1010.6 |
| 20260504210826 | 82 | 38 | 7.0 | 13.9 | 0.00 | 0.00 | 0.00 | 57 | 1010.6 |
| 20260504210726 | 81 | 39 | 7.8 | 15.6 | 0.00 | 0.00 | 0.00 | 57 | 1010.6 |
| 20260504210605 | 81 | 37 | 7.8 | 15.6 | 0.00 | 0.00 | 0.00 | 57 | 1010.6 |
| 20260504210504 | 81 | 37 | 7.8 | 15.6 | 0.00 | 0.00 | 0.00 | 56 | 1010.6 |
| 20260504210405 | 81 | 38 | 7.8 | 15.6 | 0.00 | 0.00 | 0.00 | 56 | 1010.7 |
| 20260504210305 | 81 | 37 | 7.8 | 15.6 | 0.00 | 0.00 | 0.00 | 57 | 1010.7 |
| 20260504210205 | 81 | 36 | 7.8 | 15.6 | 0.00 | 0.00 | 0.00 | 57 | 1010.8 |
| 20260504210126 | 81 | 37 | 7.8 | 15.6 | 0.00 | 0.00 | 0.00 | 57 | 1010.7 |
| 20260504210005 | 81 | 36 | 7.0 | 15.6 | 0.00 | 0.00 | 0.00 | 57 | 1010.7 |
| 20260504205905 | 81 | 37 | 7.0 | 15.6 | 0.00 | 0.00 | 0.00 | 57 | 1010.7 |
| 20260504205805 | 81 | 34 | 7.0 | 15.6 | 0.00 | 0.00 | 0.00 | 57 | 1010.7 |
| 20260504205705 | 81 | 33 | 7.0 | 13.0 | 0.00 | 0.00 | 0.00 | 57 | 1010.7 |
| 20260504205605 | 81 | 33 | 7.0 | 12.2 | 0.00 | 0.00 | 0.00 | 57 | 1010.8 |
| 20260504205504 | 81 | 31 | 7.0 | 11.3 | 0.00 | 0.00 | 0.00 | 57 | 1010.8 |
| 20260504205405 | 81 | 30 | 6.1 | 11.3 | 0.00 | 0.00 | 0.00 | 56 | 1010.8 |
| 20260504205305 | 81 | 31 | 6.1 | 11.3 | 0.00 | 0.00 | 0.00 | 57 | 1010.8 |
| 20260504205205 | 81 | 30 | 7.0 | 14.8 | 0.00 | 0.00 | 0.00 | 57 | 1010.8 |
| 20260504205105 | 81 | 29 | 7.0 | 14.8 | 0.00 | 0.00 | 0.00 | 56 | 1010.8 |
| 20260504205005 | 81 | 29 | 7.0 | 14.8 | 0.00 | 0.00 | 0.00 | 57 | 1010.8 |
| 20260504204905 | 81 | 27 | 7.8 | 14.8 | 0.00 | 0.00 | 0.00 | 56 | 1010.9 |
| 20260504204805 | 81 | 30 | 7.8 | 14.8 | 0.00 | 0.00 | 0.00 | 57 | 1010.8 |
| 20260504204705 | 81 | 26 | 7.8 | 14.8 | 0.00 | 0.00 | 0.00 | 56 | 1010.8 |
| 20260504204626 | 81 | 27 | 7.8 | 14.8 | 0.00 | 0.00 | 0.00 | 56 | 1010.8 |
| 20260504204505 | 81 | 25 | 8.7 | 16.5 | 0.00 | 0.00 | 0.00 | 56 | 1010.9 |
| 20260504204405 | 81 | 24 | 7.8 | 16.5 | 0.00 | 0.00 | 0.00 | 56 | 1010.8 |
| 20260504204305 | 81 | 23 | 7.8 | 16.5 | 0.00 | 0.00 | 0.00 | 56 | 1010.9 |
| 20260504204205 | 81 | 25 | 7.8 | 16.5 | 0.00 | 0.00 | 0.00 | 56 | 1010.8 |
| 20260504204105 | 81 | 24 | 7.0 | 16.5 | 0.00 | 0.00 | 0.00 | 56 | 1010.9 |
| 20260504204004 | 81 | 22 | 7.0 | 16.5 | 0.00 | 0.00 | 0.00 | 56 | 1010.9 |
| 20260504203926 | 81 | 21 | 7.0 | 16.5 | 0.00 | 0.00 | 0.00 | 56 | 1010.9 |
| 20260504203804 | 81 | 18 | 6.1 | 16.5 | 0.00 | 0.00 | 0.00 | 56 | 1010.9 |
| 20260504203726 | 81 | 20 | 6.1 | 16.5 | 0.00 | 0.00 | 0.00 | 56 | 1011.0 |
| 20260504203625 | 82 | 24 | 6.1 | 16.5 | 0.00 | 0.00 | 0.00 | 56 | 1011.0 |
| 20260504203504 | 81 | 27 | 6.1 | 15.6 | 0.00 | 0.00 | 0.00 | 56 | 1011.0 |
| 20260504203405 | 81 | 26 | 7.0 | 15.6 | 0.00 | 0.00 | 0.00 | 56 | 1011.0 |
| 20260504203305 | 81 | 28 | 7.0 | 15.6 | 0.00 | 0.00 | 0.00 | 56 | 1011.1 |
| 20260504203204 | 81 | 27 | 7.0 | 15.6 | 0.00 | 0.00 | 0.00 | 56 | 1011.1 |
| 20260504203126 | 81 | 29 | 7.8 | 15.6 | 0.00 | 0.00 | 0.00 | 56 | 1011.1 |
| 20260504203026 | 81 | 30 | 7.8 | 15.6 | 0.00 | 0.00 | 0.00 | 56 | 1011.2 |
| 20260504202905 | 81 | 33 | 7.8 | 15.6 | 0.00 | 0.00 | 0.00 | 56 | 1011.2 |
| 20260504202805 | 81 | 34 | 7.8 | 15.6 | 0.00 | 0.00 | 0.00 | 56 | 1011.2 |
| 20260504202704 | 81 | 33 | 7.0 | 15.6 | 0.00 | 0.00 | 0.00 | 55 | 1011.2 |
| 20260504202604 | 82 | 32 | 7.0 | 14.8 | 0.00 | 0.00 | 0.00 | 55 | 1011.3 |
| 20260504202505 | 82 | 31 | 7.0 | 14.8 | 0.00 | 0.00 | 0.00 | 55 | 1011.2 |
| 20260504202405 | 82 | 31 | 7.0 | 14.8 | 0.00 | 0.00 | 0.00 | 55 | 1011.3 |
| 20260504202305 | 82 | 30 | 7.0 | 14.8 | 0.00 | 0.00 | 0.00 | 55 | 1011.3 |
| 20260504202205 | 82 | 30 | 7.0 | 16.5 | 0.00 | 0.00 | 0.00 | 55 | 1011.3 |
| 20260504202105 | 82 | 27 | 7.0 | 16.5 | 0.00 | 0.00 | 0.00 | 55 | 1011.4 |
| 20260504202004 | 82 | 25 | 7.0 | 16.5 | 0.00 | 0.00 | 0.00 | 55 | 1011.4 |
| 20260504201905 | 82 | 24 | 7.0 | 16.5 | 0.00 | 0.00 | 0.00 | 55 | 1011.4 |
| 20260504201805 | 82 | 25 | 7.8 | 16.5 | 0.00 | 0.00 | 0.00 | 56 | 1011.5 |
| 20260504201705 | 82 | 23 | 7.8 | 16.5 | 0.00 | 0.00 | 0.00 | 55 | 1011.4 |
| 20260504201605 | 82 | 24 | 7.8 | 16.5 | 0.00 | 0.00 | 0.00 | 55 | 1011.5 |
| 20260504201504 | 82 | 26 | 7.8 | 16.5 | 0.00 | 0.00 | 0.00 | 55 | 1011.5 |
| 20260504201426 | 82 | 25 | 7.8 | 16.5 | 0.00 | 0.00 | 0.00 | 55 | 1011.5 |
| 20260504201305 | 82 | 27 | 7.8 | 16.5 | 0.00 | 0.00 | 0.00 | 55 | 1011.5 |
| 20260504201205 | 82 | 31 | 7.8 | 15.6 | 0.00 | 0.00 | 0.00 | 54 | 1011.6 |
| 20260504201105 | 82 | 34 | 7.8 | 15.6 | 0.00 | 0.00 | 0.00 | 54 | 1011.6 |
| 20260504201005 | 82 | 39 | 8.7 | 15.6 | 0.00 | 0.00 | 0.00 | 55 | 1011.5 |
| 20260504200905 | 82 | 42 | 8.7 | 15.6 | 0.00 | 0.00 | 0.00 | 55 | 1011.5 |
| 20260504200826 | 82 | 42 | 7.8 | 14.8 | 0.00 | 0.00 | 0.00 | 55 | 1011.5 |
| 20260504200726 | 82 | 42 | 8.7 | 14.8 | 0.00 | 0.00 | 0.00 | 55 | 1011.5 |
| 20260504200605 | 81 | 39 | 8.7 | 14.8 | 0.00 | 0.00 | 0.00 | 55 | 1011.5 |
| 20260504200505 | 81 | 38 | 8.7 | 15.6 | 0.00 | 0.00 | 0.00 | 55 | 1011.5 |
| 20260504200405 | 81 | 39 | 7.8 | 15.6 | 0.00 | 0.00 | 0.00 | 55 | 1011.5 |
| 20260504200305 | 81 | 40 | 7.8 | 15.6 | 0.00 | 0.00 | 0.00 | 55 | 1011.6 |
| 20260504200205 | 81 | 36 | 7.8 | 15.6 | 0.00 | 0.00 | 0.00 | 55 | 1011.6 |
| 20260504200105 | 81 | 36 | 7.8 | 15.6 | 0.00 | 0.00 | 0.00 | 55 | 1011.7 |
| 20260504200005 | 82 | 31 | 7.8 | 15.6 | 0.00 | 0.00 | 0.00 | 55 | 1011.8 |
| 20260504195904 | 82 | 28 | 7.8 | 15.6 | 0.00 | 0.00 | 0.00 | 55 | 1011.8 |
| 20260504195804 | 82 | 29 | 7.0 | 15.6 | 0.00 | 0.00 | 0.00 | 54 | 1011.9 |
| 20260504195705 | 82 | 30 | 7.0 | 15.6 | 0.00 | 0.00 | 0.00 | 55 | 1011.8 |
| 20260504195626 | 82 | 33 | 7.0 | 15.6 | 0.00 | 0.00 | 0.00 | 55 | 1011.7 |
| 20260504195505 | 81 | 38 | 7.0 | 13.0 | 0.00 | 0.00 | 0.00 | 55 | 1011.7 |
| 20260504195404 | 81 | 37 | 7.0 | 13.0 | 0.00 | 0.00 | 0.00 | 55 | 1011.8 |
| 20260504195305 | 81 | 38 | 7.0 | 13.0 | 0.00 | 0.00 | 0.00 | 54 | 1011.8 |
| 20260504195204 | 81 | 42 | 7.0 | 13.9 | 0.00 | 0.00 | 0.00 | 55 | 1012.0 |
| 20260504195105 | 81 | 44 | 7.0 | 13.9 | 0.00 | 0.00 | 0.00 | 55 | 1012.0 |
| 20260504195005 | 81 | 48 | 7.8 | 14.8 | 0.00 | 0.00 | 0.00 | 55 | 1012.0 |
| 20260504194905 | 81 | 49 | 7.8 | 14.8 | 0.00 | 0.00 | 0.00 | 55 | 1011.9 |
| 20260504194804 | 81 | 49 | 7.8 | 14.8 | 0.00 | 0.00 | 0.00 | 55 | 1011.9 |
| 20260504194726 | 81 | 49 | 8.7 | 14.8 | 0.00 | 0.00 | 0.00 | 55 | 1011.9 |
| 20260504194605 | 81 | 47 | 8.7 | 14.8 | 0.00 | 0.00 | 0.00 | 55 | 1011.9 |
| 20260504194504 | 81 | 47 | 8.7 | 15.6 | 0.00 | 0.00 | 0.00 | 55 | 1011.9 |
| 20260504194405 | 81 | 47 | 9.6 | 15.6 | 0.00 | 0.00 | 0.00 | 55 | 1012.0 |
| 20260504194305 | 81 | 47 | 9.6 | 15.6 | 0.00 | 0.00 | 0.00 | 54 | 1012.0 |
| 20260504194205 | 81 | 45 | 9.6 | 15.6 | 0.00 | 0.00 | 0.00 | 55 | 1012.0 |
| 20260504194105 | 81 | 44 | 9.6 | 17.4 | 0.00 | 0.00 | 0.00 | 55 | 1012.0 |
| 20260504194004 | 81 | 43 | 9.6 | 17.4 | 0.00 | 0.00 | 0.00 | 55 | 1012.0 |
| 20260504193905 | 81 | 41 | 9.6 | 17.4 | 0.00 | 0.00 | 0.00 | 55 | 1012.0 |
| 20260504193805 | 81 | 41 | 9.6 | 17.4 | 0.00 | 0.00 | 0.00 | 55 | 1011.9 |
| 20260504193726 | 81 | 41 | 9.6 | 17.4 | 0.00 | 0.00 | 0.00 | 55 | 1012.0 |
| 20260504193626 | 81 | 42 | 8.7 | 17.4 | 0.00 | 0.00 | 0.00 | 55 | 1012.0 |
| 20260504193505 | 81 | 41 | 8.7 | 17.4 | 0.00 | 0.00 | 0.00 | 54 | 1012.1 |
| 20260504193404 | 81 | 42 | 8.7 | 17.4 | 0.00 | 0.00 | 0.00 | 55 | 1012.1 |
| 20260504193305 | 81 | 44 | 7.8 | 17.4 | 0.00 | 0.00 | 0.00 | 55 | 1012.1 |
| 20260504193205 | 81 | 44 | 7.8 | 17.4 | 0.00 | 0.00 | 0.00 | 55 | 1012.1 |
| 20260504193126 | 81 | 44 | 7.8 | 14.8 | 0.00 | 0.00 | 0.00 | 55 | 1012.2 |
| 20260504193004 | 81 | 43 | 7.8 | 14.8 | 0.00 | 0.00 | 0.00 | 55 | 1012.3 |
| 20260504192905 | 80 | 43 | 8.7 | 16.5 | 0.00 | 0.00 | 0.00 | 55 | 1012.3 |
| 20260504192804 | 80 | 42 | 7.8 | 16.5 | 0.00 | 0.00 | 0.00 | 55 | 1012.2 |
| 20260504192704 | 80 | 42 | 8.7 | 16.5 | 0.00 | 0.00 | 0.00 | 55 | 1012.2 |
| 20260504192604 | 80 | 43 | 7.8 | 16.5 | 0.00 | 0.00 | 0.00 | 55 | 1012.3 |
| 20260504192504 | 80 | 41 | 7.8 | 16.5 | 0.00 | 0.00 | 0.00 | 55 | 1012.2 |
| 20260504192405 | 80 | 41 | 7.8 | 16.5 | 0.00 | 0.00 | 0.00 | 55 | 1012.2 |
| 20260504192305 | 80 | 40 | 7.8 | 16.5 | 0.00 | 0.00 | 0.00 | 55 | 1012.2 |
| 20260504192226 | 80 | 40 | 7.8 | 16.5 | 0.00 | 0.00 | 0.00 | 55 | 1012.2 |
| 20260504192105 | 80 | 38 | 7.8 | 16.5 | 0.00 | 0.00 | 0.00 | 55 | 1012.3 |
| 20260504192005 | 80 | 34 | 7.8 | 16.5 | 0.00 | 0.00 | 0.00 | 55 | 1012.3 |
| 20260504191904 | 80 | 35 | 7.8 | 16.5 | 0.00 | 0.00 | 0.00 | 55 | 1012.3 |
| 20260504191804 | 80 | 36 | 7.8 | 14.8 | 0.00 | 0.00 | 0.00 | 55 | 1012.3 |
| 20260504191704 | 80 | 35 | 7.8 | 14.8 | 0.00 | 0.00 | 0.00 | 55 | 1012.4 |
| 20260504191605 | 80 | 33 | 7.8 | 14.8 | 0.00 | 0.00 | 0.00 | 55 | 1012.4 |
| 20260504191505 | 80 | 34 | 8.7 | 14.8 | 0.00 | 0.00 | 0.00 | 55 | 1012.4 |
| 20260504191404 | 80 | 34 | 8.7 | 14.8 | 0.00 | 0.00 | 0.00 | 55 | 1012.4 |
| 20260504191305 | 80 | 33 | 8.7 | 14.8 | 0.00 | 0.00 | 0.00 | 55 | 1012.5 |
| 20260504191204 | 80 | 33 | 8.7 | 14.8 | 0.00 | 0.00 | 0.00 | 55 | 1012.5 |
| 20260504191105 | 80 | 35 | 8.7 | 15.6 | 0.00 | 0.00 | 0.00 | 56 | 1012.4 |
| 20260504191004 | 80 | 39 | 8.7 | 15.6 | 0.00 | 0.00 | 0.00 | 55 | 1012.5 |
| 20260504190904 | 79 | 39 | 8.7 | 15.6 | 0.00 | 0.00 | 0.00 | 55 | 1012.5 |
| 20260504190826 | 79 | 38 | 8.7 | 15.6 | 0.00 | 0.00 | 0.00 | 55 | 1012.6 |
| 20260504190725 | 80 | 39 | 8.7 | 15.6 | 0.00 | 0.00 | 0.00 | 55 | 1012.5 |
| 20260504190605 | 80 | 39 | 8.7 | 15.6 | 0.00 | 0.00 | 0.00 | 55 | 1012.6 |
| 20260504190505 | 80 | 38 | 8.7 | 15.6 | 0.00 | 0.00 | 0.00 | 55 | 1012.6 |
| 20260504190405 | 79 | 36 | 8.7 | 15.6 | 0.00 | 0.00 | 0.00 | 56 | 1012.7 |
| 20260504190304 | 79 | 36 | 8.7 | 15.6 | 0.00 | 0.00 | 0.00 | 56 | 1012.5 |
| 20260504190226 | 79 | 35 | 8.7 | 15.6 | 0.00 | 0.00 | 0.00 | 55 | 1012.5 |
| 20260504190105 | 79 | 33 | 7.8 | 14.8 | 0.00 | 0.00 | 0.00 | 55 | 1012.5 |
| 20260504190005 | 80 | 31 | 7.8 | 14.8 | 0.00 | 0.00 | 0.00 | 55 | 1012.4 |
| 20260504185904 | 80 | 31 | 7.8 | 14.8 | 0.00 | 0.00 | 0.00 | 55 | 1012.5 |
| 20260504185805 | 80 | 32 | 7.8 | 14.8 | 0.00 | 0.00 | 0.00 | 55 | 1012.5 |
| 20260504185705 | 80 | 32 | 7.8 | 14.8 | 0.00 | 0.00 | 0.00 | 54 | 1012.6 |
| 20260504185604 | 80 | 32 | 7.8 | 17.4 | 0.00 | 0.00 | 0.00 | 54 | 1012.7 |
| 20260504185526 | 80 | 32 | 7.0 | 17.4 | 0.00 | 0.00 | 0.00 | 55 | 1012.6 |
| 20260504185426 | 80 | 31 | 7.0 | 17.4 | 0.00 | 0.00 | 0.00 | 55 | 1012.5 |
| 20260504185305 | 79 | 33 | 7.0 | 17.4 | 0.00 | 0.00 | 0.00 | 55 | 1012.6 |
| 20260504185205 | 79 | 33 | 7.0 | 17.4 | 0.00 | 0.00 | 0.00 | 55 | 1012.6 |
| 20260504185125 | 79 | 35 | 7.0 | 17.4 | 0.00 | 0.00 | 0.00 | 55 | 1012.7 |
| 20260504185025 | 79 | 35 | 7.0 | 17.4 | 0.00 | 0.00 | 0.00 | 55 | 1012.7 |
| 20260504184905 | 79 | 31 | 7.0 | 17.4 | 0.00 | 0.00 | 0.00 | 55 | 1012.6 |
| 20260504184805 | 79 | 30 | 7.0 | 17.4 | 0.00 | 0.00 | 0.00 | 55 | 1012.6 |
| 20260504184705 | 79 | 30 | 7.0 | 17.4 | 0.00 | 0.00 | 0.00 | 55 | 1012.6 |
| 20260504184605 | 79 | 31 | 6.1 | 13.0 | 0.00 | 0.00 | 0.00 | 55 | 1012.6 |
| 20260504184505 | 79 | 32 | 7.0 | 13.0 | 0.00 | 0.00 | 0.00 | 55 | 1012.6 |
| 20260504184426 | 79 | 35 | 7.0 | 13.0 | 0.00 | 0.00 | 0.00 | 55 | 1012.7 |
| 20260504184304 | 79 | 35 | 7.0 | 13.0 | 0.00 | 0.00 | 0.00 | 55 | 1012.7 |
| 20260504184226 | 79 | 35 | 7.0 | 13.0 | 0.00 | 0.00 | 0.00 | 56 | 1012.7 |
| 20260504184104 | 78 | 35 | 7.0 | 13.9 | 0.00 | 0.00 | 0.00 | 55 | 1012.8 |
| 20260504184004 | 78 | 36 | 7.8 | 13.9 | 0.00 | 0.00 | 0.00 | 56 | 1012.7 |
| 20260504183905 | 78 | 38 | 7.8 | 15.6 | 0.00 | 0.00 | 0.00 | 56 | 1012.7 |
| 20260504183805 | 78 | 38 | 7.8 | 15.6 | 0.00 | 0.00 | 0.00 | 55 | 1012.7 |
| 20260504183726 | 78 | 38 | 7.0 | 15.6 | 0.00 | 0.00 | 0.00 | 56 | 1012.8 |
| 20260504183604 | 78 | 37 | 7.8 | 15.6 | 0.00 | 0.00 | 0.00 | 56 | 1012.9 |
| 20260504183526 | 78 | 37 | 7.8 | 15.6 | 0.00 | 0.00 | 0.00 | 56 | 1012.9 |
| 20260504183404 | 78 | 34 | 7.8 | 15.6 | 0.00 | 0.00 | 0.00 | 55 | 1012.9 |
| 20260504183305 | 78 | 32 | 7.8 | 15.6 | 0.00 | 0.00 | 0.00 | 56 | 1013.0 |
| 20260504183205 | 78 | 30 | 7.8 | 15.6 | 0.00 | 0.00 | 0.00 | 55 | 1013.1 |
| 20260504183126 | 78 | 29 | 7.0 | 15.6 | 0.00 | 0.00 | 0.00 | 55 | 1013.0 |
| 20260504183004 | 78 | 29 | 7.0 | 15.6 | 0.00 | 0.00 | 0.00 | 55 | 1013.1 |
| 20260504182905 | 78 | 26 | 7.0 | 13.9 | 0.00 | 0.00 | 0.00 | 55 | 1013.1 |
| 20260504182826 | 78 | 27 | 7.0 | 13.9 | 0.00 | 0.00 | 0.00 | 55 | 1013.2 |
| 20260504182705 | 78 | 28 | 7.8 | 13.9 | 0.00 | 0.00 | 0.00 | 55 | 1013.1 |
| 20260504182604 | 78 | 30 | 7.0 | 13.9 | 0.00 | 0.00 | 0.00 | 55 | 1013.2 |
| 20260504182526 | 78 | 31 | 7.0 | 13.9 | 0.00 | 0.00 | 0.00 | 55 | 1013.2 |
| 20260504182404 | 78 | 33 | 7.0 | 13.9 | 0.00 | 0.00 | 0.00 | 55 | 1013.2 |
| 20260504182326 | 77 | 34 | 7.0 | 13.9 | 0.00 | 0.00 | 0.00 | 55 | 1013.2 |
| 20260504182225 | 77 | 37 | 7.0 | 13.9 | 0.00 | 0.00 | 0.00 | 55 | 1013.2 |
| 20260504182105 | 77 | 40 | 7.8 | 13.9 | 0.00 | 0.00 | 0.00 | 56 | 1013.3 |
| 20260504182005 | 77 | 40 | 7.8 | 13.9 | 0.00 | 0.00 | 0.00 | 56 | 1013.3 |
| 20260504181905 | 77 | 43 | 7.8 | 13.9 | 0.00 | 0.00 | 0.00 | 56 | 1013.3 |
| 20260504181805 | 77 | 44 | 7.8 | 13.9 | 0.00 | 0.00 | 0.00 | 56 | 1013.3 |
| 20260504181704 | 77 | 42 | 7.8 | 13.9 | 0.00 | 0.00 | 0.00 | 56 | 1013.3 |
| 20260504181605 | 77 | 41 | 7.8 | 13.9 | 0.00 | 0.00 | 0.00 | 56 | 1013.3 |
| 20260504181505 | 77 | 38 | 7.8 | 13.9 | 0.00 | 0.00 | 0.00 | 55 | 1013.3 |
| 20260504181404 | 77 | 40 | 7.8 | 13.9 | 0.00 | 0.00 | 0.00 | 55 | 1013.2 |
| 20260504181304 | 77 | 45 | 7.8 | 13.9 | 0.00 | 0.00 | 0.00 | 55 | 1013.2 |
| 20260504181205 | 77 | 47 | 7.8 | 13.9 | 0.00 | 0.00 | 0.00 | 55 | 1013.2 |
| 20260504160404 | 73 | 37 | 8.7 | 18.2 | 0.00 | 0.00 | 0.00 | 52 | 1014.8 |
| 20260504160304 | 73 | 36 | 8.7 | 18.2 | 0.00 | 0.00 | 0.00 | 52 | 1014.9 |
| 20260504160204 | 73 | 35 | 8.7 | 18.2 | 0.00 | 0.00 | 0.00 | 52 | 1014.9 |
| 20260504160104 | 73 | 34 | 8.7 | 18.2 | 0.00 | 0.00 | 0.00 | 52 | 1015.0 |
| 20260504151125 | 71 | 31 | 8.7 | 15.6 | 0.00 | 0.00 | 0.00 | 51 | 1015.0 |
| 20260504151004 | 71 | 32 | 8.7 | 16.5 | 0.00 | 0.00 | 0.00 | 51 | 1015.1 |
| 20260504150904 | 71 | 33 | 8.7 | 16.5 | 0.00 | 0.00 | 0.00 | 51 | 1015.2 |
| 20260504150804 | 71 | 35 | 8.7 | 16.5 | 0.00 | 0.00 | 0.00 | 51 | 1015.2 |
| 20260504150704 | 71 | 35 | 8.7 | 16.5 | 0.00 | 0.00 | 0.00 | 50 | 1015.2 |
| 20260504150604 | 71 | 36 | 8.7 | 16.5 | 0.00 | 0.00 | 0.00 | 50 | 1015.1 |
| 20260504150504 | 71 | 35 | 8.7 | 16.5 | 0.00 | 0.00 | 0.00 | 50 | 1015.1 |
| 20260504150404 | 71 | 34 | 7.8 | 16.5 | 0.00 | 0.00 | 0.00 | 51 | 1015.1 |
| 20260504150304 | 71 | 33 | 7.8 | 16.5 | 0.00 | 0.00 | 0.00 | 50 | 1015.1 |
| 20260504150204 | 71 | 32 | 7.8 | 16.5 | 0.00 | 0.00 | 0.00 | 50 | 1015.1 |
| 20260504150104 | 71 | 31 | 7.0 | 16.5 | 0.00 | 0.00 | 0.00 | 50 | 1015.1 |
| 20260504141304 | 68 | 23 | 4.3 | 9.6 | 0.00 | 0.00 | 0.00 | 45 | 1015.3 |
| 20260504141204 | 68 | 23 | 4.3 | 9.6 | 0.00 | 0.00 | 0.00 | 45 | 1015.3 |
| 20260504141104 | 68 | 20 | 4.3 | 9.6 | 0.00 | 0.00 | 0.00 | 44 | 1015.3 |
| 20260504141004 | 68 | 22 | 4.3 | 7.8 | 0.00 | 0.00 | 0.00 | 44 | 1015.4 |
| 20260504140904 | 68 | 19 | 3.5 | 7.0 | 0.00 | 0.00 | 0.00 | 43 | 1015.3 |
| 20260504140804 | 67 | 24 | 3.5 | 7.0 | 0.00 | 0.00 | 0.00 | 43 | 1015.4 |
| 20260504140704 | 67 | 25 | 4.3 | 7.0 | 0.00 | 0.00 | 0.00 | 43 | 1015.4 |
| 20260504140604 | 67 | 26 | 4.3 | 8.7 | 0.00 | 0.00 | 0.00 | 42 | 1015.3 |
| 20260504140525 | 67 | 25 | 4.3 | 8.7 | 0.00 | 0.00 | 0.00 | 42 | 1015.4 |
| 20260504140425 | 67 | 25 | 4.3 | 9.6 | 0.00 | 0.00 | 0.00 | 42 | 1015.5 |
| 20260504140304 | 67 | 25 | 4.3 | 9.6 | 0.00 | 0.00 | 0.00 | 42 | 1015.4 |
| 20260504140225 | 67 | 20 | 4.3 | 9.6 | 0.00 | 0.00 | 0.00 | 41 | 1015.4 |
| 20260504140125 | 67 | 22 | 4.3 | 9.6 | 0.00 | 0.00 | 0.00 | 40 | 1015.4 |
| 20260504130804 | 62 | 35 | 2.6 | 6.1 | 0.00 | 0.00 | 0.00 | 6 | 1015.3 |
| 20260504130705 | 62 | 33 | 2.6 | 6.1 | 0.00 | 0.00 | 0.00 | 7 | 1015.3 |
| 20260504130604 | 62 | 32 | 2.6 | 6.1 | 0.00 | 0.00 | 0.00 | 7 | 1015.3 |
| 20260504130525 | 62 | 30 | 2.6 | 7.0 | 0.00 | 0.00 | 0.00 | 7 | 1015.3 |
| 20260504130404 | 62 | 33 | 2.6 | 7.0 | 0.00 | 0.00 | 0.00 | 7 | 1015.3 |
| 20260504130304 | 62 | 34 | 2.6 | 7.8 | 0.00 | 0.00 | 0.00 | 7 | 1015.3 |
| 20260504130225 | 62 | 32 | 2.6 | 7.8 | 0.00 | 0.00 | 0.00 | 7 | 1015.3 |
| 20260504130104 | 62 | 29 | 2.6 | 7.8 | 0.00 | 0.00 | 0.00 | 7 | 1015.3 |
| 20260504120304 | 60 | 34 | 2.6 | 5.2 | 0.00 | 0.00 | 0.00 | 1 | 1014.5 |
| 20260504120204 | 60 | 34 | 2.6 | 5.2 | 0.00 | 0.00 | 0.00 | 1 | 1014.5 |
| 20260504120104 | 60 | 34 | 2.6 | 5.2 | 0.00 | 0.00 | 0.00 | 1 | 1014.5 |
| 20260504110704 | 61 | 51 | 2.6 | 6.1 | 0.00 | 0.00 | 0.00 | 1 | 1015.0 |
| 20260504110604 | 61 | 50 | 2.6 | 6.1 | 0.00 | 0.00 | 0.00 | 1 | 1015.1 |
| 20260504110504 | 61 | 50 | 2.6 | 6.1 | 0.00 | 0.00 | 0.00 | 1 | 1015.0 |
| 20260504110404 | 61 | 49 | 2.6 | 6.1 | 0.00 | 0.00 | 0.00 | 1 | 1015.0 |
| 20260504110304 | 61 | 48 | 2.6 | 6.1 | 0.00 | 0.00 | 0.00 | 1 | 1015.0 |
| 20260504110204 | 61 | 47 | 2.6 | 6.1 | 0.00 | 0.00 | 0.00 | 1 | 1015.0 |
| 20260504110104 | 61 | 46 | 2.6 | 6.1 | 0.00 | 0.00 | 0.00 | 1 | 1015.0 |
| 20260504100604 | 61 | 45 | 0.9 | 6.1 | 0.00 | 0.00 | 0.00 | 8 | 1015.2 |
| 20260504100525 | 61 | 45 | 0.9 | 6.1 | 0.00 | 0.00 | 0.00 | 8 | 1015.1 |
| 20260504100425 | 61 | 44 | 1.7 | 6.1 | 0.00 | 0.00 | 0.00 | 9 | 1015.2 |
| 20260504100304 | 61 | 42 | 1.7 | 6.1 | 0.00 | 0.00 | 0.00 | 10 | 1015.2 |
| 20260504100204 | 61 | 40 | 1.7 | 6.1 | 0.00 | 0.00 | 0.00 | 10 | 1015.2 |
| 20260504100104 | 61 | 34 | 2.6 | 6.1 | 0.00 | 0.00 | 0.00 | 10 | 1015.2 |
| 20260504090125 | 62 | 32 | 2.6 | 5.2 | 0.00 | 0.00 | 0.00 | 19 | 1015.2 |
| 20260504082004 | 63 | 42 | 1.7 | 4.3 | 0.00 | 0.00 | 0.00 | 32 | 1015.5 |
| 20260504081904 | 63 | 43 | 1.7 | 4.3 | 0.00 | 0.00 | 0.00 | 32 | 1015.5 |
| 20260504081825 | 63 | 42 | 1.7 | 4.3 | 0.00 | 0.00 | 0.00 | 33 | 1015.5 |
| 20260504081704 | 63 | 39 | 1.7 | 4.3 | 0.00 | 0.00 | 0.00 | 33 | 1015.6 |
| 20260504081604 | 63 | 35 | 1.7 | 4.3 | 0.00 | 0.00 | 0.00 | 34 | 1015.5 |
| 20260504081504 | 63 | 36 | 1.7 | 4.3 | 0.00 | 0.00 | 0.00 | 34 | 1015.6 |
| 20260504081404 | 63 | 36 | 1.7 | 5.2 | 0.00 | 0.00 | 0.00 | 35 | 1015.7 |
| 20260504081304 | 63 | 37 | 1.7 | 5.2 | 0.00 | 0.00 | 0.00 | 35 | 1015.6 |
| 20260504081204 | 63 | 36 | 1.7 | 5.2 | 0.00 | 0.00 | 0.00 | 36 | 1015.6 |
| 20260504081104 | 63 | 36 | 1.7 | 5.2 | 0.00 | 0.00 | 0.00 | 36 | 1015.6 |
| 20260504081004 | 63 | 35 | 1.7 | 5.2 | 0.00 | 0.00 | 0.00 | 37 | 1015.5 |
| 20260504080904 | 63 | 35 | 1.7 | 5.2 | 0.00 | 0.00 | 0.00 | 38 | 1015.6 |
| 20260504080804 | 63 | 35 | 1.7 | 5.2 | 0.00 | 0.00 | 0.00 | 38 | 1015.7 |
| 20260504080704 | 63 | 35 | 1.7 | 5.2 | 0.00 | 0.00 | 0.00 | 39 | 1015.6 |
| 20260504080604 | 63 | 35 | 1.7 | 5.2 | 0.00 | 0.00 | 0.00 | 39 | 1015.7 |
| 20260504080504 | 63 | 35 | 1.7 | 5.2 | 0.00 | 0.00 | 0.00 | 40 | 1015.7 |
| 20260504080404 | 63 | 35 | 1.7 | 5.2 | 0.00 | 0.00 | 0.00 | 40 | 1015.8 |
| 20260504080304 | 63 | 35 | 1.7 | 5.2 | 0.00 | 0.00 | 0.00 | 41 | 1015.7 |
| 20260504080204 | 63 | 36 | 1.7 | 5.2 | 0.00 | 0.00 | 0.00 | 41 | 1015.7 |
| 20260504080125 | 63 | 36 | 1.7 | 5.2 | 0.00 | 0.00 | 0.00 | 41 | 1015.7 |
| 20260504070304 | 64 | 39 | 2.6 | 6.1 | 0.00 | 0.00 | 0.00 | 47 | 1016.8 |
| 20260504070204 | 64 | 36 | 2.6 | 6.1 | 0.00 | 0.00 | 0.00 | 47 | 1016.8 |
| 20260504070104 | 64 | 31 | 3.5 | 8.7 | 0.00 | 0.00 | 0.00 | 47 | 1016.8 |
| 20260504060204 | 64 | 40 | 1.7 | 6.1 | 0.00 | 0.00 | 0.00 | 53 | 1017.4 |
| 20260504060104 | 64 | 42 | 1.7 | 6.1 | 0.00 | 0.00 | 0.00 | 53 | 1017.5 |
| 20260504050704 | 65 | 36 | 2.6 | 5.2 | 0.00 | 0.00 | 0.00 | 62 | 1017.6 |
| 20260504050604 | 65 | 36 | 2.6 | 5.2 | 0.00 | 0.00 | 0.00 | 62 | 1017.5 |
| 20260504050504 | 65 | 36 | 2.6 | 5.2 | 0.00 | 0.00 | 0.00 | 62 | 1017.6 |
| 20260504050404 | 65 | 32 | 2.6 | 5.2 | 0.00 | 0.00 | 0.00 | 62 | 1017.5 |
| 20260504050304 | 65 | 33 | 1.7 | 5.2 | 0.00 | 0.00 | 0.00 | 62 | 1017.5 |
| 20260504050204 | 66 | 36 | 1.7 | 5.2 | 0.00 | 0.00 | 0.00 | 62 | 1017.5 |
| 20260504050104 | 66 | 36 | 1.7 | 5.2 | 0.00 | 0.00 | 0.00 | 62 | 1017.6 |
| 20260504050004 | 66 | 30 | 1.7 | 6.1 | 0.00 | 0.00 | 0.00 | 62 | 1017.6 |
| 20260504045904 | 66 | 29 | 1.7 | 6.1 | 0.00 | 0.00 | 0.00 | 62 | 1017.6 |
| 20260504045825 | 66 | 29 | 1.7 | 6.1 | 0.00 | 0.00 | 0.00 | 62 | 1017.6 |
| 20260504045704 | 66 | 24 | 1.7 | 6.1 | 0.00 | 0.00 | 0.00 | 62 | 1017.6 |
| 20260504045604 | 66 | 24 | 1.7 | 6.1 | 0.00 | 0.00 | 0.00 | 62 | 1017.5 |
| 20260504045525 | 66 | 24 | 1.7 | 7.0 | 0.00 | 0.00 | 0.00 | 62 | 1017.5 |
| 20260504045404 | 66 | 26 | 1.7 | 7.0 | 0.00 | 0.00 | 0.00 | 62 | 1017.6 |
| 20260504045304 | 66 | 24 | 2.6 | 7.0 | 0.00 | 0.00 | 0.00 | 62 | 1017.6 |
| 20260504045204 | 66 | 28 | 2.6 | 7.0 | 0.00 | 0.00 | 0.00 | 62 | 1017.6 |
| 20260504045104 | 66 | 26 | 3.5 | 7.0 | 0.00 | 0.00 | 0.00 | 62 | 1017.7 |
| 20260504045004 | 66 | 32 | 2.6 | 7.0 | 0.00 | 0.00 | 0.00 | 62 | 1017.7 |
| 20260504044904 | 66 | 31 | 2.6 | 7.0 | 0.00 | 0.00 | 0.00 | 63 | 1017.7 |
| 20260504044825 | 66 | 31 | 2.6 | 7.0 | 0.00 | 0.00 | 0.00 | 63 | 1017.7 |
| 20260504044704 | 66 | 31 | 2.6 | 7.0 | 0.00 | 0.00 | 0.00 | 63 | 1017.7 |
| 20260504044604 | 66 | 29 | 1.7 | 7.0 | 0.00 | 0.00 | 0.00 | 63 | 1017.8 |
| 20260504044504 | 66 | 29 | 1.7 | 7.0 | 0.00 | 0.00 | 0.00 | 63 | 1017.8 |
| 20260504044404 | 66 | 31 | 1.7 | 7.0 | 0.00 | 0.00 | 0.00 | 63 | 1017.8 |
| 20260504044304 | 66 | 37 | 0.9 | 7.0 | 0.00 | 0.00 | 0.00 | 63 | 1017.8 |
| 20260504044205 | 66 | 34 | 0.9 | 7.0 | 0.00 | 0.00 | 0.00 | 63 | 1017.8 |
| 20260504044104 | 66 | 38 | 0.9 | 6.1 | 0.00 | 0.00 | 0.00 | 63 | 1017.8 |
| 20260504044004 | 66 | 35 | 0.9 | 6.1 | 0.00 | 0.00 | 0.00 | 63 | 1017.8 |
| 20260504043904 | 66 | 25 | 0.9 | 8.7 | 0.00 | 0.00 | 0.00 | 63 | 1017.7 |
| 20260504043825 | 66 | 12 | 0.9 | 8.7 | 0.00 | 0.00 | 0.00 | 63 | 1017.7 |
| 20260504043725 | 66 | 12 | 0.9 | 8.7 | 0.00 | 0.00 | 0.00 | 63 | 1017.7 |
| 20260504043604 | 66 | 13 | 0.9 | 8.7 | 0.00 | 0.00 | 0.00 | 63 | 1017.7 |
| 20260504043504 | 66 | 13 | 0.9 | 8.7 | 0.00 | 0.00 | 0.00 | 63 | 1017.7 |
| 20260504043404 | 66 | 14 | 0.9 | 8.7 | 0.00 | 0.00 | 0.00 | 63 | 1017.8 |
| 20260504043304 | 66 | 353 | 0.9 | 8.7 | 0.00 | 0.00 | 0.00 | 63 | 1017.7 |
| 20260504043204 | 66 | 343 | 0.9 | 8.7 | 0.00 | 0.00 | 0.00 | 63 | 1017.7 |
| 20260504043104 | 66 | 347 | 1.7 | 8.7 | 0.00 | 0.00 | 0.00 | 63 | 1017.7 |
| 20260504043025 | 66 | 354 | 1.7 | 8.7 | 0.00 | 0.00 | 0.00 | 63 | 1017.7 |
| 20260504042904 | 67 | 2 | 1.7 | 7.8 | 0.00 | 0.00 | 0.00 | 63 | 1017.8 |
| 20260504042825 | 67 | 360 | 2.6 | 7.8 | 0.00 | 0.00 | 0.00 | 63 | 1017.8 |
| 20260504042725 | 67 | 360 | 2.6 | 7.8 | 0.00 | 0.00 | 0.00 | 63 | 1017.8 |
| 20260504042604 | 67 | 1 | 2.6 | 7.8 | 0.00 | 0.00 | 0.00 | 63 | 1017.8 |
| 20260504042504 | 67 | 4 | 2.6 | 7.8 | 0.00 | 0.00 | 0.00 | 63 | 1017.8 |
| 20260504042404 | 67 | 4 | 2.6 | 7.8 | 0.00 | 0.00 | 0.00 | 63 | 1017.9 |
| 20260504042304 | 67 | 9 | 2.6 | 7.8 | 0.00 | 0.00 | 0.00 | 63 | 1017.9 |
| 20260504042204 | 67 | 12 | 3.5 | 7.8 | 0.00 | 0.00 | 0.00 | 63 | 1018.0 |
| 20260504042104 | 67 | 14 | 2.6 | 7.8 | 0.00 | 0.00 | 0.00 | 63 | 1017.9 |
| 20260504042004 | 67 | 11 | 2.6 | 7.8 | 0.00 | 0.00 | 0.00 | 63 | 1017.9 |
| 20260504041925 | 67 | 6 | 2.6 | 7.8 | 0.00 | 0.00 | 0.00 | 63 | 1017.9 |
| 20260504041804 | 67 | 17 | 1.7 | 7.8 | 0.00 | 0.00 | 0.00 | 64 | 1018.0 |
| 20260504041704 | 67 | 21 | 1.7 | 7.8 | 0.00 | 0.00 | 0.00 | 64 | 1017.9 |
| 20260504041604 | 67 | 20 | 1.7 | 8.7 | 0.00 | 0.00 | 0.00 | 64 | 1017.9 |
| 20260504041504 | 67 | 15 | 1.7 | 8.7 | 0.00 | 0.00 | 0.00 | 64 | 1018.0 |
| 20260504041404 | 67 | 10 | 1.7 | 8.7 | 0.00 | 0.00 | 0.00 | 64 | 1017.9 |
| 20260504041304 | 67 | 13 | 0.9 | 8.7 | 0.00 | 0.00 | 0.00 | 64 | 1017.9 |
| 20260504041225 | 67 | 7 | 0.9 | 8.7 | 0.00 | 0.00 | 0.00 | 64 | 1017.9 |
| 20260504041104 | 67 | 357 | 0.9 | 8.7 | 0.00 | 0.00 | 0.00 | 64 | 1017.9 |
| 20260504041025 | 67 | 355 | 0.9 | 8.7 | 0.00 | 0.00 | 0.00 | 64 | 1017.9 |
| 20260504040904 | 67 | 351 | 0.9 | 8.7 | 0.00 | 0.00 | 0.00 | 64 | 1017.9 |
| 20260504040825 | 67 | 346 | 0.9 | 8.7 | 0.00 | 0.00 | 0.00 | 64 | 1018.0 |
| 20260504040704 | 67 | 354 | 0.9 | 8.7 | 0.00 | 0.00 | 0.00 | 64 | 1018.0 |
| 20260504040625 | 67 | 355 | 0.9 | 8.7 | 0.00 | 0.00 | 0.00 | 64 | 1018.0 |
| 20260504040504 | 67 | 353 | 1.7 | 8.7 | 0.00 | 0.00 | 0.00 | 64 | 1017.9 |
| 20260504040404 | 67 | 1 | 1.7 | 8.7 | 0.00 | 0.00 | 0.00 | 64 | 1017.9 |
| 20260504040325 | 67 | 4 | 1.7 | 8.7 | 0.00 | 0.00 | 0.00 | 64 | 1017.9 |
| 20260504040204 | 67 | 8 | 2.6 | 8.7 | 0.00 | 0.00 | 0.00 | 64 | 1017.9 |
| 20260504040104 | 67 | 10 | 2.6 | 8.7 | 0.00 | 0.00 | 0.00 | 64 | 1017.9 |
| 20260504040004 | 67 | 9 | 3.5 | 8.7 | 0.00 | 0.00 | 0.00 | 64 | 1017.9 |
| 20260504035904 | 67 | 8 | 3.5 | 8.7 | 0.00 | 0.00 | 0.00 | 64 | 1018.0 |
| 20260504035804 | 67 | 6 | 3.5 | 8.7 | 0.00 | 0.00 | 0.00 | 64 | 1018.0 |
| 20260504035704 | 67 | 6 | 3.5 | 8.7 | 0.00 | 0.00 | 0.00 | 64 | 1018.0 |
| 20260504035604 | 67 | 9 | 2.6 | 8.7 | 0.00 | 0.00 | 0.00 | 64 | 1018.0 |
| 20260504035504 | 67 | 3 | 2.6 | 8.7 | 0.00 | 0.00 | 0.00 | 63 | 1018.0 |
| 20260504035425 | 67 | 359 | 3.5 | 7.8 | 0.00 | 0.00 | 0.00 | 63 | 1018.0 |
| 20260504035305 | 68 | 352 | 3.5 | 8.7 | 0.00 | 0.00 | 0.00 | 63 | 1018.0 |
| 20260504035205 | 68 | 350 | 3.5 | 8.7 | 0.00 | 0.00 | 0.00 | 63 | 1018.0 |
| 20260504035104 | 68 | 346 | 3.5 | 8.7 | 0.00 | 0.00 | 0.00 | 63 | 1018.0 |
| 20260504035004 | 68 | 345 | 2.6 | 8.7 | 0.00 | 0.00 | 0.00 | 63 | 1018.0 |
| 20260504034904 | 68 | 341 | 2.6 | 8.7 | 0.00 | 0.00 | 0.00 | 63 | 1017.9 |
| 20260504034825 | 68 | 341 | 1.7 | 8.7 | 0.00 | 0.00 | 0.00 | 62 | 1017.9 |
| 20260504034704 | 68 | 342 | 2.6 | 8.7 | 0.00 | 0.00 | 0.00 | 62 | 1017.9 |
| 20260504034604 | 68 | 343 | 2.6 | 8.7 | 0.00 | 0.00 | 0.00 | 62 | 1017.9 |
| 20260504034504 | 68 | 347 | 1.7 | 8.7 | 0.00 | 0.00 | 0.00 | 61 | 1017.9 |
| 20260504034404 | 68 | 347 | 1.7 | 7.8 | 0.00 | 0.00 | 0.00 | 61 | 1017.9 |
| 20260504034325 | 68 | 342 | 1.7 | 6.1 | 0.00 | 0.00 | 0.00 | 61 | 1017.9 |
| 20260504034204 | 68 | 327 | 0.9 | 6.1 | 0.00 | 0.00 | 0.00 | 61 | 1017.9 |
| 20260504034104 | 68 | 323 | 0.9 | 5.2 | 0.00 | 0.00 | 0.00 | 61 | 1017.8 |
| 20260504034004 | 68 | 320 | 0.9 | 5.2 | 0.00 | 0.00 | 0.00 | 61 | 1017.8 |
| 20260504033904 | 68 | 320 | 0.9 | 5.2 | 0.00 | 0.00 | 0.00 | 60 | 1017.8 |
| 20260504033804 | 68 | 320 | 0.9 | 5.2 | 0.00 | 0.00 | 0.00 | 60 | 1017.8 |
| 20260504033704 | 68 | 319 | 0.9 | 5.2 | 0.00 | 0.00 | 0.00 | 60 | 1017.8 |
| 20260504033604 | 68 | 310 | 0.9 | 5.2 | 0.00 | 0.00 | 0.00 | 60 | 1017.8 |
| 20260504033504 | 68 | 312 | 0.9 | 5.2 | 0.00 | 0.00 | 0.00 | 60 | 1017.7 |
| 20260504033404 | 68 | 311 | 0.9 | 5.2 | 0.00 | 0.00 | 0.00 | 59 | 1017.8 |
| 20260504033304 | 68 | 303 | 0.0 | 5.2 | 0.00 | 0.00 | 0.00 | 59 | 1017.7 |
| 20260504033204 | 68 | 333 | 0.0 | 4.3 | 0.00 | 0.00 | 0.00 | 59 | 1017.7 |
| 20260504033104 | 68 | 318 | 0.0 | 4.3 | 0.00 | 0.00 | 0.00 | 59 | 1017.7 |
| 20260504033004 | 68 | 311 | 0.0 | 4.3 | 0.00 | 0.00 | 0.00 | 59 | 1017.7 |
| 20260504032904 | 69 | 315 | 0.9 | 4.3 | 0.00 | 0.00 | 0.00 | 59 | 1017.7 |
| 20260504032804 | 69 | 329 | 0.9 | 7.8 | 0.00 | 0.00 | 0.00 | 58 | 1017.7 |
| 20260504032704 | 69 | 332 | 0.9 | 7.8 | 0.00 | 0.00 | 0.00 | 58 | 1017.7 |
| 20260504032604 | 69 | 332 | 0.9 | 7.8 | 0.00 | 0.00 | 0.00 | 58 | 1017.7 |
| 20260504032504 | 69 | 332 | 0.9 | 7.8 | 0.00 | 0.00 | 0.00 | 58 | 1017.8 |
| 20260504032404 | 69 | 332 | 0.9 | 7.8 | 0.00 | 0.00 | 0.00 | 58 | 1017.8 |
| 20260504032304 | 69 | 330 | 0.9 | 7.8 | 0.00 | 0.00 | 0.00 | 58 | 1017.8 |
| 20260504032204 | 69 | 330 | 0.9 | 7.8 | 0.00 | 0.00 | 0.00 | 58 | 1017.8 |
| 20260504032104 | 69 | 332 | 0.9 | 7.8 | 0.00 | 0.00 | 0.00 | 58 | 1017.8 |
| 20260504032004 | 69 | 333 | 0.9 | 7.8 | 0.00 | 0.00 | 0.00 | 57 | 1017.8 |
| 20260504031904 | 69 | 337 | 0.9 | 7.8 | 0.00 | 0.00 | 0.00 | 57 | 1017.8 |
| 20260504031825 | 69 | 333 | 0.9 | 5.2 | 0.00 | 0.00 | 0.00 | 57 | 1017.8 |
| 20260504031704 | 69 | 322 | 0.0 | 5.2 | 0.00 | 0.00 | 0.00 | 58 | 1017.8 |
| 20260504031604 | 69 | 322 | 0.0 | 5.2 | 0.00 | 0.00 | 0.00 | 57 | 1017.8 |
| 20260504031525 | 69 | 322 | 0.0 | 5.2 | 0.00 | 0.00 | 0.00 | 57 | 1017.7 |
| 20260504031404 | 69 | 319 | 0.0 | 3.5 | 0.00 | 0.00 | 0.00 | 57 | 1017.7 |
| 20260504031304 | 69 | 319 | 0.0 | 3.5 | 0.00 | 0.00 | 0.00 | 57 | 1017.7 |
| 20260504031204 | 69 | 347 | 0.0 | 3.5 | 0.00 | 0.00 | 0.00 | 57 | 1017.7 |
| 20260504031104 | 69 | 355 | 0.0 | 3.5 | 0.00 | 0.00 | 0.00 | 57 | 1017.7 |
| 20260504031025 | 69 | 11 | 0.0 | 3.5 | 0.00 | 0.00 | 0.00 | 57 | 1017.7 |
| 20260504030904 | 69 | 21 | 0.0 | 4.3 | 0.00 | 0.00 | 0.00 | 57 | 1017.7 |
| 20260504030804 | 69 | 21 | 0.0 | 4.3 | 0.00 | 0.00 | 0.00 | 57 | 1017.7 |
| 20260504030704 | 69 | 19 | 0.9 | 4.3 | 0.00 | 0.00 | 0.00 | 57 | 1017.7 |
| 20260504030604 | 69 | 6 | 0.9 | 4.3 | 0.00 | 0.00 | 0.00 | 57 | 1017.7 |
| 20260504030525 | 69 | 358 | 0.9 | 4.3 | 0.00 | 0.00 | 0.00 | 57 | 1017.7 |
| 20260504030404 | 69 | 356 | 0.9 | 4.3 | 0.00 | 0.00 | 0.00 | 57 | 1017.7 |
| 20260504030304 | 69 | 356 | 0.9 | 4.3 | 0.00 | 0.00 | 0.00 | 57 | 1017.7 |
| 20260504030225 | 69 | 356 | 0.9 | 4.3 | 0.00 | 0.00 | 0.00 | 57 | 1017.6 |
| 20260504030104 | 69 | 351 | 0.9 | 4.3 | 0.00 | 0.00 | 0.00 | 56 | 1017.6 |
| 20260504030004 | 70 | 336 | 0.9 | 3.5 | 0.00 | 0.00 | 0.00 | 57 | 1017.6 |
| 20260504025904 | 70 | 336 | 0.9 | 3.5 | 0.00 | 0.00 | 0.00 | 57 | 1017.6 |
| 20260504025804 | 70 | 336 | 0.9 | 3.5 | 0.00 | 0.00 | 0.00 | 56 | 1017.6 |
| 20260504025704 | 70 | 336 | 0.9 | 3.5 | 0.00 | 0.00 | 0.00 | 56 | 1017.5 |
| 20260504025604 | 70 | 333 | 0.0 | 3.5 | 0.00 | 0.00 | 0.00 | 56 | 1017.6 |
| 20260504025504 | 70 | 331 | 0.0 | 0.9 | 0.00 | 0.00 | 0.00 | 56 | 1017.6 |
| 20260504025404 | 70 | 0 | 0.0 | 0.0 | 0.00 | 0.00 | 0.00 | 56 | 1017.7 |
| 20260504025304 | 70 | 329 | 0.0 | 1.7 | 0.00 | 0.00 | 0.00 | 56 | 1017.7 |
| 20260504025204 | 70 | 329 | 0.0 | 1.7 | 0.00 | 0.00 | 0.00 | 56 | 1017.8 |
| 20260504025104 | 70 | 329 | 0.0 | 1.7 | 0.00 | 0.00 | 0.00 | 56 | 1017.8 |
| 20260504025004 | 70 | 329 | 0.0 | 1.7 | 0.00 | 0.00 | 0.00 | 56 | 1017.7 |
| 20260504024925 | 70 | 329 | 0.0 | 1.7 | 0.00 | 0.00 | 0.00 | 56 | 1017.7 |
| 20260504024804 | 70 | 329 | 0.0 | 1.7 | 0.00 | 0.00 | 0.00 | 56 | 1017.7 |
| 20260504024704 | 70 | 333 | 0.0 | 3.5 | 0.00 | 0.00 | 0.00 | 56 | 1017.7 |
| 20260504024604 | 70 | 332 | 0.0 | 3.5 | 0.00 | 0.00 | 0.00 | 56 | 1017.7 |
| 20260504024504 | 70 | 332 | 0.0 | 3.5 | 0.00 | 0.00 | 0.00 | 56 | 1017.7 |
| 20260504024404 | 70 | 332 | 0.0 | 3.5 | 0.00 | 0.00 | 0.00 | 56 | 1017.7 |
| 20260504024304 | 70 | 333 | 0.0 | 3.5 | 0.00 | 0.00 | 0.00 | 56 | 1017.7 |
| 20260504024225 | 70 | 333 | 0.0 | 3.5 | 0.00 | 0.00 | 0.00 | 56 | 1017.7 |
| 20260504024105 | 70 | 333 | 0.0 | 3.5 | 0.00 | 0.00 | 0.00 | 56 | 1017.7 |
| 20260504024004 | 70 | 333 | 0.0 | 3.5 | 0.00 | 0.00 | 0.00 | 56 | 1017.6 |
| 20260504023925 | 70 | 333 | 0.0 | 3.5 | 0.00 | 0.00 | 0.00 | 56 | 1017.6 |
| 20260504023804 | 70 | 333 | 0.0 | 3.5 | 0.00 | 0.00 | 0.00 | 56 | 1017.5 |
| 20260504023725 | 70 | 333 | 0.0 | 3.5 | 0.00 | 0.00 | 0.00 | 56 | 1017.5 |
| 20260504023604 | 70 | 0 | 0.0 | 0.0 | 0.00 | 0.00 | 0.00 | 56 | 1017.5 |
| 20260504023525 | 70 | 0 | 0.0 | 0.0 | 0.00 | 0.00 | 0.00 | 56 | 1017.4 |
| 20260504023425 | 70 | 0 | 0.0 | 0.0 | 0.00 | 0.00 | 0.00 | 56 | 1017.4 |
| 20260504023304 | 70 | 0 | 0.0 | 0.0 | 0.00 | 0.00 | 0.00 | 56 | 1017.5 |
| 20260504023204 | 70 | 0 | 0.0 | 0.0 | 0.00 | 0.00 | 0.00 | 56 | 1017.5 |
| 20260504023104 | 70 | 0 | 0.0 | 0.0 | 0.00 | 0.00 | 0.00 | 56 | 1017.5 |
| 20260504023004 | 70 | 0 | 0.0 | 0.0 | 0.00 | 0.00 | 0.00 | 56 | 1017.6 |
| 20260504022904 | 70 | 336 | 0.0 | 0.9 | 0.00 | 0.00 | 0.00 | 56 | 1017.6 |
| 20260504022804 | 70 | 336 | 0.0 | 0.9 | 0.00 | 0.00 | 0.00 | 56 | 1017.6 |
| 20260504022704 | 70 | 336 | 0.0 | 0.9 | 0.00 | 0.00 | 0.00 | 56 | 1017.6 |
| 20260504022625 | 70 | 336 | 0.0 | 0.9 | 0.00 | 0.00 | 0.00 | 56 | 1017.6 |
| 20260504022504 | 70 | 336 | 0.0 | 0.9 | 0.00 | 0.00 | 0.00 | 56 | 1017.7 |
| 20260504022404 | 70 | 336 | 0.0 | 0.9 | 0.00 | 0.00 | 0.00 | 56 | 1017.7 |
| 20260504022305 | 70 | 336 | 0.0 | 0.9 | 0.00 | 0.00 | 0.00 | 56 | 1017.7 |
| 20260504022204 | 70 | 335 | 0.0 | 2.6 | 0.00 | 0.00 | 0.00 | 56 | 1017.7 |
| 20260504022104 | 70 | 335 | 0.0 | 2.6 | 0.00 | 0.00 | 0.00 | 56 | 1017.6 |
| 20260504022004 | 70 | 335 | 0.0 | 2.6 | 0.00 | 0.00 | 0.00 | 55 | 1017.6 |
| 20260504021925 | 70 | 335 | 0.0 | 2.6 | 0.00 | 0.00 | 0.00 | 55 | 1017.6 |
| 20260504021804 | 70 | 335 | 0.0 | 2.6 | 0.00 | 0.00 | 0.00 | 55 | 1017.6 |
| 20260504021704 | 71 | 335 | 0.0 | 2.6 | 0.00 | 0.00 | 0.00 | 55 | 1017.6 |
| 20260504021604 | 71 | 335 | 0.0 | 2.6 | 0.00 | 0.00 | 0.00 | 54 | 1017.6 |
| 20260504021504 | 71 | 335 | 0.0 | 2.6 | 0.00 | 0.00 | 0.00 | 54 | 1017.5 |
| 20260504021426 | 71 | 335 | 0.0 | 2.6 | 0.00 | 0.00 | 0.00 | 54 | 1017.5 |
| 20260504021304 | 71 | 335 | 0.0 | 2.6 | 0.00 | 0.00 | 0.00 | 54 | 1017.5 |
| 20260504021205 | 71 | 335 | 0.0 | 1.7 | 0.00 | 0.00 | 0.00 | 54 | 1017.5 |
| 20260504021104 | 71 | 0 | 0.0 | 0.0 | 0.00 | 0.00 | 0.00 | 54 | 1017.5 |
| 20260504021004 | 71 | 0 | 0.0 | 0.0 | 0.00 | 0.00 | 0.00 | 54 | 1017.5 |
| 20260504020925 | 71 | 0 | 0.0 | 0.0 | 0.00 | 0.00 | 0.00 | 54 | 1017.5 |
| 20260504020804 | 71 | 0 | 0.0 | 0.0 | 0.00 | 0.00 | 0.00 | 54 | 1017.5 |
| 20260504020725 | 71 | 0 | 0.0 | 0.0 | 0.00 | 0.00 | 0.00 | 54 | 1017.4 |
| 20260504020604 | 71 | 0 | 0.0 | 0.0 | 0.00 | 0.00 | 0.00 | 54 | 1017.4 |
| 20260504020504 | 71 | 0 | 0.0 | 0.0 | 0.00 | 0.00 | 0.00 | 54 | 1017.4 |
| 20260504020404 | 71 | 0 | 0.0 | 0.0 | 0.00 | 0.00 | 0.00 | 54 | 1017.3 |
| 20260504020304 | 71 | 0 | 0.0 | 0.0 | 0.00 | 0.00 | 0.00 | 54 | 1017.3 |
| 20260504020204 | 71 | 0 | 0.0 | 0.0 | 0.00 | 0.00 | 0.00 | 54 | 1017.3 |
| 20260504020104 | 71 | 0 | 0.0 | 0.0 | 0.00 | 0.00 | 0.00 | 53 | 1017.3 |
| 20260504020004 | 71 | 0 | 0.0 | 0.0 | 0.00 | 0.00 | 0.00 | 54 | 1017.2 |
| 20260504015904 | 71 | 0 | 0.0 | 0.0 | 0.00 | 0.00 | 0.00 | 54 | 1017.2 |
| 20260504015804 | 71 | 0 | 0.0 | 0.0 | 0.00 | 0.00 | 0.00 | 54 | 1017.2 |
| 20260504015704 | 71 | 0 | 0.0 | 0.0 | 0.00 | 0.00 | 0.00 | 54 | 1017.2 |
| 20260504015604 | 71 | 0 | 0.0 | 0.0 | 0.00 | 0.00 | 0.00 | 54 | 1017.1 |
| 20260504015504 | 71 | 0 | 0.0 | 0.0 | 0.00 | 0.00 | 0.00 | 54 | 1017.1 |
| 20260504015404 | 71 | 0 | 0.0 | 0.0 | 0.00 | 0.00 | 0.00 | 54 | 1017.1 |
| 20260504015304 | 71 | 0 | 0.0 | 0.0 | 0.00 | 0.00 | 0.00 | 54 | 1017.1 |
| 20260504015204 | 71 | 0 | 0.0 | 0.0 | 0.00 | 0.00 | 0.00 | 54 | 1017.0 |
| 20260504015104 | 71 | 0 | 0.0 | 0.0 | 0.00 | 0.00 | 0.00 | 54 | 1017.0 |
| 20260504015004 | 71 | 0 | 0.0 | 0.0 | 0.00 | 0.00 | 0.00 | 54 | 1017.0 |
| 20260504014904 | 71 | 0 | 0.0 | 0.0 | 0.00 | 0.00 | 0.00 | 54 | 1017.0 |
| 20260504014825 | 71 | 0 | 0.0 | 0.0 | 0.00 | 0.00 | 0.00 | 54 | 1017.0 |
| 20260504014704 | 71 | 0 | 0.0 | 0.0 | 0.00 | 0.00 | 0.00 | 54 | 1017.0 |
| 20260504014604 | 71 | 0 | 0.0 | 0.0 | 0.00 | 0.00 | 0.00 | 54 | 1017.0 |
| 20260504014525 | 71 | 0 | 0.0 | 0.0 | 0.00 | 0.00 | 0.00 | 54 | 1016.9 |
| 20260504014404 | 71 | 0 | 0.0 | 0.0 | 0.00 | 0.00 | 0.00 | 54 | 1016.9 |
| 20260504014325 | 71 | 0 | 0.0 | 0.0 | 0.00 | 0.00 | 0.00 | 54 | 1016.9 |
| 20260504014204 | 72 | 0 | 0.0 | 0.0 | 0.00 | 0.00 | 0.00 | 54 | 1016.9 |
| 20260504014104 | 72 | 0 | 0.0 | 0.0 | 0.00 | 0.00 | 0.00 | 54 | 1016.9 |
| 20260504014025 | 72 | 0 | 0.0 | 0.0 | 0.00 | 0.00 | 0.00 | 53 | 1017.0 |
| 20260504013925 | 72 | 0 | 0.0 | 0.9 | 0.00 | 0.00 | 0.00 | 53 | 1017.0 |
| 20260504013804 | 72 | 0 | 0.0 | 0.9 | 0.00 | 0.00 | 0.00 | 53 | 1017.0 |
| 20260504013704 | 72 | 0 | 0.0 | 0.9 | 0.00 | 0.00 | 0.00 | 53 | 1017.0 |
| 20260504013625 | 72 | 0 | 0.0 | 0.9 | 0.00 | 0.00 | 0.00 | 53 | 1017.0 |
| 20260504013504 | 72 | 0 | 0.0 | 0.9 | 0.00 | 0.00 | 0.00 | 52 | 1017.0 |
| 20260504013404 | 72 | 0 | 0.0 | 0.9 | 0.00 | 0.00 | 0.00 | 52 | 1017.0 |
| 20260504013304 | 72 | 0 | 0.0 | 0.9 | 0.00 | 0.00 | 0.00 | 52 | 1017.0 |
| 20260504013204 | 72 | 0 | 0.0 | 0.9 | 0.00 | 0.00 | 0.00 | 52 | 1017.0 |
| 20260504013104 | 72 | 0 | 0.0 | 0.9 | 0.00 | 0.00 | 0.00 | 52 | 1016.9 |
| 20260504013025 | 72 | 0 | 0.0 | 0.9 | 0.00 | 0.00 | 0.00 | 52 | 1016.9 |
| 20260504012925 | 72 | 333 | 0.0 | 1.7 | 0.00 | 0.00 | 0.00 | 51 | 1016.9 |
| 20260504012804 | 72 | 333 | 0.0 | 1.7 | 0.00 | 0.00 | 0.00 | 51 | 1016.8 |
| 20260504012704 | 72 | 333 | 0.0 | 1.7 | 0.00 | 0.00 | 0.00 | 51 | 1016.9 |
| 20260504012604 | 72 | 333 | 0.0 | 1.7 | 0.00 | 0.00 | 0.00 | 51 | 1016.9 |
| 20260504012504 | 73 | 333 | 0.0 | 1.7 | 0.00 | 0.00 | 0.00 | 51 | 1016.9 |
| 20260504012404 | 73 | 333 | 0.0 | 1.7 | 0.00 | 0.00 | 0.00 | 51 | 1017.0 |
| 20260504012304 | 73 | 333 | 0.0 | 1.7 | 0.00 | 0.00 | 0.00 | 51 | 1017.0 |
| 20260504012204 | 73 | 333 | 0.0 | 1.7 | 0.00 | 0.00 | 0.00 | 51 | 1017.0 |
| 20260504012125 | 73 | 333 | 0.0 | 1.7 | 0.00 | 0.00 | 0.00 | 51 | 1017.0 |
| 20260504012004 | 73 | 333 | 0.0 | 1.7 | 0.00 | 0.00 | 0.00 | 50 | 1017.0 |
| 20260504011925 | 73 | 333 | 0.0 | 1.7 | 0.00 | 0.00 | 0.00 | 50 | 1017.0 |
| 20260504011825 | 73 | 333 | 0.0 | 1.7 | 0.00 | 0.00 | 0.00 | 50 | 1016.9 |
| 20260504011704 | 73 | 333 | 0.0 | 1.7 | 0.00 | 0.00 | 0.00 | 50 | 1017.0 |
| 20260504011604 | 73 | 333 | 0.0 | 1.7 | 0.00 | 0.00 | 0.00 | 50 | 1017.0 |
| 20260504011504 | 73 | 333 | 0.0 | 1.7 | 0.00 | 0.00 | 0.00 | 50 | 1017.0 |
| 20260504011404 | 73 | 333 | 0.0 | 1.7 | 0.00 | 0.00 | 0.00 | 49 | 1017.0 |
| 20260504011304 | 73 | 0 | 0.0 | 0.0 | 0.00 | 0.00 | 0.00 | 49 | 1017.0 |
| 20260504011204 | 73 | 0 | 0.0 | 0.0 | 0.00 | 0.00 | 0.00 | 49 | 1017.0 |
| 20260504011104 | 74 | 333 | 0.0 | 3.5 | 0.00 | 0.00 | 0.00 | 49 | 1017.0 |
| 20260504011004 | 74 | 333 | 0.0 | 3.5 | 0.00 | 0.00 | 0.00 | 49 | 1017.0 |
| 20260504010904 | 74 | 333 | 0.0 | 3.5 | 0.00 | 0.00 | 0.00 | 49 | 1017.0 |
| 20260504010804 | 74 | 333 | 0.0 | 3.5 | 0.00 | 0.00 | 0.00 | 49 | 1017.0 |
| 20260504010704 | 74 | 333 | 0.0 | 3.5 | 0.00 | 0.00 | 0.00 | 49 | 1017.0 |
| 20260504010604 | 74 | 333 | 0.0 | 3.5 | 0.00 | 0.00 | 0.00 | 48 | 1017.0 |
| 20260504010504 | 74 | 333 | 0.0 | 3.5 | 0.00 | 0.00 | 0.00 | 48 | 1017.0 |
| 20260504010425 | 74 | 334 | 0.0 | 3.5 | 0.00 | 0.00 | 0.00 | 48 | 1017.0 |
| 20260504010304 | 74 | 334 | 0.0 | 3.5 | 0.00 | 0.00 | 0.00 | 48 | 1016.9 |
| 20260504010204 | 74 | 333 | 0.0 | 3.5 | 0.00 | 0.00 | 0.00 | 48 | 1016.9 |
| 20260504010104 | 74 | 334 | 0.0 | 2.6 | 0.00 | 0.00 | 0.00 | 48 | 1016.9 |
| 20260504010004 | 74 | 333 | 0.0 | 2.6 | 0.00 | 0.00 | 0.00 | 48 | 1016.9 |
| 20260504005904 | 74 | 333 | 0.0 | 2.6 | 0.00 | 0.00 | 0.00 | 47 | 1016.9 |
| 20260504005804 | 74 | 332 | 0.0 | 2.6 | 0.00 | 0.00 | 0.00 | 47 | 1016.9 |
| 20260504005704 | 74 | 329 | 0.0 | 2.6 | 0.00 | 0.00 | 0.00 | 47 | 1016.9 |
| 20260504005604 | 74 | 329 | 0.0 | 2.6 | 0.00 | 0.00 | 0.00 | 47 | 1016.9 |
| 20260504005504 | 75 | 329 | 0.0 | 2.6 | 0.00 | 0.00 | 0.00 | 47 | 1016.9 |
| 20260504005425 | 75 | 327 | 0.0 | 2.6 | 0.00 | 0.00 | 0.00 | 47 | 1016.9 |
| 20260504005305 | 75 | 327 | 0.0 | 2.6 | 0.00 | 0.00 | 0.00 | 47 | 1017.0 |
| 20260504005204 | 75 | 326 | 0.0 | 2.6 | 0.00 | 0.00 | 0.00 | 47 | 1016.9 |
| 20260504005104 | 75 | 344 | 0.0 | 2.6 | 0.00 | 0.00 | 0.00 | 46 | 1016.9 |
| 20260504005004 | 75 | 1 | 0.0 | 3.5 | 0.00 | 0.00 | 0.00 | 46 | 1016.9 |
| 20260504004904 | 75 | 1 | 0.0 | 3.5 | 0.00 | 0.00 | 0.00 | 46 | 1016.9 |
| 20260504004825 | 75 | 1 | 0.0 | 3.5 | 0.00 | 0.00 | 0.00 | 46 | 1016.9 |
| 20260504004725 | 75 | 5 | 0.0 | 3.5 | 0.00 | 0.00 | 0.00 | 46 | 1016.9 |
| 20260504004604 | 75 | 21 | 0.0 | 3.5 | 0.00 | 0.00 | 0.00 | 45 | 1016.9 |
| 20260504004525 | 75 | 21 | 0.0 | 3.5 | 0.00 | 0.00 | 0.00 | 45 | 1016.9 |
| 20260504004404 | 75 | 21 | 0.0 | 3.5 | 0.00 | 0.00 | 0.00 | 45 | 1016.9 |
| 20260504004304 | 76 | 21 | 0.0 | 3.5 | 0.00 | 0.00 | 0.00 | 45 | 1016.8 |
| 20260504004204 | 76 | 21 | 0.0 | 3.5 | 0.00 | 0.00 | 0.00 | 45 | 1016.9 |
| 20260504004104 | 76 | 20 | 0.0 | 3.5 | 0.00 | 0.00 | 0.00 | 45 | 1016.9 |
| 20260504004004 | 76 | 329 | 0.0 | 0.9 | 0.00 | 0.00 | 0.00 | 44 | 1016.8 |
| 20260504003904 | 76 | 329 | 0.0 | 0.9 | 0.00 | 0.00 | 0.00 | 44 | 1016.8 |
| 20260504003804 | 76 | 0 | 0.0 | 0.0 | 0.00 | 0.00 | 0.00 | 44 | 1016.8 |
| 20260504003704 | 76 | 0 | 0.0 | 0.0 | 0.00 | 0.00 | 0.00 | 44 | 1016.9 |
| 20260504003604 | 76 | 0 | 0.0 | 0.0 | 0.00 | 0.00 | 0.00 | 44 | 1016.9 |
| 20260504003504 | 76 | 347 | 0.0 | 4.3 | 0.00 | 0.00 | 0.00 | 44 | 1016.9 |
| 20260504003404 | 76 | 29 | 0.0 | 4.3 | 0.00 | 0.00 | 0.00 | 44 | 1016.9 |
| 20260504003304 | 76 | 44 | 0.0 | 4.3 | 0.00 | 0.00 | 0.00 | 44 | 1017.0 |
| 20260504003225 | 76 | 44 | 0.0 | 4.3 | 0.00 | 0.00 | 0.00 | 44 | 1016.9 |
| 20260504003125 | 76 | 43 | 0.9 | 4.3 | 0.00 | 0.00 | 0.00 | 44 | 1016.9 |
| 20260504003004 | 77 | 43 | 0.9 | 4.3 | 0.00 | 0.00 | 0.00 | 44 | 1017.0 |
| 20260504002904 | 77 | 43 | 0.9 | 4.3 | 0.00 | 0.00 | 0.00 | 43 | 1017.0 |
| 20260504002804 | 77 | 43 | 0.9 | 4.3 | 0.00 | 0.00 | 0.00 | 43 | 1017.0 |
| 20260504002704 | 77 | 36 | 0.9 | 4.3 | 0.00 | 0.00 | 0.00 | 44 | 1017.0 |
| 20260504002625 | 77 | 36 | 0.9 | 4.3 | 0.00 | 0.00 | 0.00 | 43 | 1017.0 |
| 20260504002504 | 77 | 27 | 0.9 | 4.3 | 0.00 | 0.00 | 0.00 | 43 | 1017.0 |
| 20260504002404 | 77 | 23 | 0.0 | 4.3 | 0.00 | 0.00 | 0.00 | 43 | 1017.0 |
| 20260504002304 | 77 | 12 | 0.9 | 4.3 | 0.00 | 0.00 | 0.00 | 44 | 1017.0 |
| 20260504002204 | 77 | 16 | 0.9 | 4.3 | 0.00 | 0.00 | 0.00 | 43 | 1017.0 |
| 20260504002104 | 77 | 13 | 0.9 | 7.0 | 0.00 | 0.00 | 0.00 | 43 | 1017.1 |
| 20260504002004 | 77 | 17 | 0.9 | 7.0 | 0.00 | 0.00 | 0.00 | 43 | 1017.1 |
| 20260504001904 | 77 | 17 | 0.9 | 7.0 | 0.00 | 0.00 | 0.00 | 43 | 1017.1 |
| 20260504001804 | 77 | 17 | 0.9 | 7.0 | 0.00 | 0.00 | 0.00 | 43 | 1017.0 |
| 20260504001704 | 77 | 19 | 0.9 | 7.0 | 0.00 | 0.00 | 0.00 | 43 | 1017.1 |
| 20260504001604 | 77 | 21 | 0.9 | 7.0 | 0.00 | 0.00 | 0.00 | 42 | 1017.1 |
| 20260504001504 | 77 | 31 | 0.9 | 7.0 | 0.00 | 0.00 | 0.00 | 42 | 1017.1 |
| 20260504001425 | 77 | 30 | 0.9 | 7.0 | 0.00 | 0.00 | 0.00 | 43 | 1017.1 |
| 20260504001304 | 77 | 30 | 0.9 | 7.0 | 0.00 | 0.00 | 0.00 | 42 | 1017.2 |
| 20260504001225 | 77 | 27 | 0.9 | 7.0 | 0.00 | 0.00 | 0.00 | 42 | 1017.2 |
| 20260504001104 | 77 | 38 | 0.0 | 4.3 | 0.00 | 0.00 | 0.00 | 43 | 1017.3 |
| 20260504001025 | 77 | 37 | 0.9 | 4.3 | 0.00 | 0.00 | 0.00 | 43 | 1017.2 |
| 20260504000904 | 77 | 29 | 0.9 | 7.0 | 0.00 | 0.00 | 0.00 | 43 | 1017.3 |
| 20260504000804 | 77 | 31 | 0.9 | 7.0 | 0.00 | 0.00 | 0.00 | 43 | 1017.3 |
| 20260504000704 | 77 | 35 | 0.9 | 8.7 | 0.00 | 0.00 | 0.00 | 43 | 1017.3 |
| 20260504000604 | 77 | 36 | 0.9 | 8.7 | 0.00 | 0.00 | 0.00 | 43 | 1017.3 |
| 20260504000525 | 77 | 36 | 0.9 | 8.7 | 0.00 | 0.00 | 0.00 | 43 | 1017.3 |
| 20260504000425 | 77 | 36 | 0.9 | 8.7 | 0.00 | 0.00 | 0.00 | 43 | 1017.3 |
| 20260504000304 | 77 | 35 | 0.9 | 8.7 | 0.00 | 0.00 | 0.00 | 43 | 1017.4 |
| 20260504000204 | 77 | 37 | 0.9 | 8.7 | 0.00 | 0.00 | 0.00 | 43 | 1017.4 |
| 20260504000125 | 77 | 37 | 1.7 | 8.7 | 0.00 | 0.00 | 0.00 | 43 | 1017.4 |
| 20260504000004 | 77 | 37 | 0.9 | 8.7 | 0.00 | 0.00 | 0.00 | 43 | 1017.4 |
| 20260503235904 | 77 | 41 | 0.9 | 8.7 | 0.00 | 0.00 | 0.00 | 42 | 1017.4 |
| 20260503235825 | 77 | 41 | 0.9 | 8.7 | 0.00 | 0.00 | 0.00 | 42 | 1017.4 |
| 20260503235704 | 77 | 40 | 0.9 | 7.0 | 0.00 | 0.00 | 0.00 | 43 | 1017.4 |
| 20260503235604 | 78 | 40 | 0.9 | 7.0 | 0.00 | 0.00 | 0.00 | 42 | 1017.4 |
| 20260503235525 | 78 | 40 | 0.9 | 7.0 | 0.00 | 0.00 | 0.00 | 42 | 1017.3 |
| 20260503235404 | 78 | 40 | 0.9 | 7.0 | 0.00 | 0.00 | 0.00 | 43 | 1017.4 |
| 20260503235304 | 78 | 41 | 0.9 | 7.0 | 0.00 | 0.00 | 0.00 | 43 | 1017.3 |
| 20260503235204 | 78 | 40 | 0.9 | 7.0 | 0.00 | 0.00 | 0.00 | 42 | 1017.3 |
| 20260503235104 | 78 | 45 | 0.0 | 4.3 | 0.00 | 0.00 | 0.00 | 43 | 1017.3 |
| 20260503235004 | 78 | 43 | 0.0 | 4.3 | 0.00 | 0.00 | 0.00 | 43 | 1017.3 |
| 20260503234925 | 78 | 42 | 0.0 | 4.3 | 0.00 | 0.00 | 0.00 | 43 | 1017.3 |
| 20260503234804 | 78 | 43 | 0.0 | 4.3 | 0.00 | 0.00 | 0.00 | 42 | 1017.3 |
| 20260503234704 | 78 | 342 | 0.0 | 0.9 | 0.00 | 0.00 | 0.00 | 42 | 1017.4 |
| 20260503234604 | 78 | 342 | 0.0 | 0.9 | 0.00 | 0.00 | 0.00 | 42 | 1017.4 |
| 20260503234525 | 78 | 342 | 0.0 | 0.9 | 0.00 | 0.00 | 0.00 | 42 | 1017.4 |
| 20260503234404 | 78 | 9 | 0.0 | 0.9 | 0.00 | 0.00 | 0.00 | 42 | 1017.4 |
| 20260503234304 | 78 | 9 | 0.0 | 0.9 | 0.00 | 0.00 | 0.00 | 41 | 1017.4 |
| 20260503234204 | 78 | 9 | 0.0 | 0.9 | 0.00 | 0.00 | 0.00 | 40 | 1017.4 |
| 20260503234104 | 78 | 9 | 0.0 | 0.9 | 0.00 | 0.00 | 0.00 | 41 | 1017.4 |
| 20260503234004 | 78 | 359 | 0.0 | 0.9 | 0.00 | 0.00 | 0.00 | 40 | 1017.5 |
| 20260503233925 | 78 | 3 | 0.0 | 0.9 | 0.00 | 0.00 | 0.00 | 40 | 1017.5 |